GFSSW_500_spd_057.txt.gz
Wind_Speed
55 58 60 62 62 62 62 60 58 55 52 51 49 46 48 48 45 42 40 39 38 36 34 31 29 28 27 26 24 24 21 18 18 14 16 18 18 19 20 21 19 18 18 18 17
48 48 50 51 54 59 61 63 61 58 54 53 52 46 47 48 47 42 40 40 39 36 33 33 31 29 28 28 26 25 24 20 18 16 15 17 19 20 21 21 21 19 18 20 19
42 45 48 48 46 46 52 56 55 56 55 54 53 49 46 49 47 44 41 40 39 37 33 33 30 29 27 27 26 25 24 21 21 18 15 16 18 19 21 22 22 19 19 21 21
39 42 46 47 45 42 42 51 53 53 53 54 54 50 46 49 47 45 42 40 39 38 36 32 30 30 30 27 24 23 23 23 22 21 19 18 18 18 18 20 20 20 20 21 22
36 35 39 38 38 38 39 44 51 52 53 54 54 51 46 48 47 45 42 40 40 37 38 36 35 29 28 26 24 24 24 24 23 22 22 19 17 16 18 18 18 19 20 21 22
29 30 28 30 33 33 36 40 48 52 54 54 52 49 46 47 47 44 42 39 39 36 34 27 31 33 28 27 27 24 23 21 20 22 23 19 18 19 20 18 18 19 21 22 23
23 22 18 22 28 33 34 38 47 50 53 52 50 47 45 46 46 42 41 38 38 36 34 31 28 36 27 24 25 25 24 20 21 24 20 19 16 23 20 21 20 21 23 24 24
15 11 12 17 23 27 33 36 46 47 50 49 48 46 44 44 44 41 38 37 36 33 31 34 33 33 25 27 25 25 24 21 24 24 20 20 15 24 22 24 23 24 25 27 27
7 2 9 15 23 26 28 33 42 45 46 46 46 44 41 42 41 39 37 37 36 35 33 30 30 27 28 26 25 24 24 23 24 24 22 21 15 26 24 25 25 27 29 29 29
10 10 13 16 20 24 28 36 42 44 44 43 42 39 39 39 38 36 35 34 33 34 35 35 33 29 27 26 25 25 25 24 23 23 23 21 17 25 27 26 28 31 32 31 30
18 18 18 19 23 29 37 41 41 41 40 41 39 37 37 37 37 35 34 32 32 31 31 31 30 27 27 28 27 26 25 25 22 24 24 23 19 24 29 26 30 33 32 31 30
20 22 25 30 35 38 39 38 39 40 38 36 36 36 37 37 34 32 30 30 29 28 28 27 26 28 27 25 25 26 25 24 24 26 25 23 19 22 28 28 30 30 30 30 29
21 26 31 34 36 36 37 38 37 36 35 35 35 35 35 33 32 28 27 27 26 25 25 26 25 24 24 23 23 24 24 25 26 26 26 26 22 24 29 32 31 31 31 32 31
19 22 26 29 31 33 35 35 34 33 33 34 35 34 31 31 29 27 25 25 25 24 23 24 21 19 20 22 24 23 24 25 26 27 28 28 33 23 30 30 31 30 31 31 32
22 23 25 27 29 29 30 30 29 30 31 33 32 32 34 32 25 24 23 22 22 21 22 22 23 21 20 21 22 22 24 26 29 30 31 28 36 25 26 27 29 30 30 30 31
19 21 22 23 25 27 26 25 26 26 24 30 31 30 28 25 23 22 21 22 21 20 21 20 21 21 21 22 24 25 26 29 31 31 33 29 31 28 25 26 27 28 28 29 30
15 17 19 20 26 27 25 25 22 22 21 26 25 24 23 22 21 20 19 18 17 16 17 18 19 20 22 23 26 27 28 30 32 31 30 29 29 25 26 27 28 29 30 32 34
14 18 20 23 26 28 28 25 21 19 22 21 20 20 20 19 18 18 17 17 17 18 19 19 19 21 22 25 27 27 28 29 31 30 28 28 28 28 29 30 31 31 32 33 34
13 18 21 23 23 25 26 21 20 21 20 19 19 19 18 17 16 16 16 17 17 18 19 19 20 22 23 25 25 25 26 27 28 28 29 28 28 30 29 31 31 33 34 36 39
13 15 18 21 24 26 25 21 19 16 16 14 14 14 14 15 15 15 15 16 18 18 19 19 20 20 21 23 24 25 25 25 27 30 30 30 30 31 31 32 33 36 39 40 43
11 12 14 18 20 21 22 20 16 14 13 13 14 14 15 16 15 15 16 18 19 20 21 22 22 20 21 22 24 25 25 27 28 29 31 33 31 32 33 35 38 41 42 43 44
7 7 10 13 16 16 16 17 17 15 15 15 15 16 17 17 17 17 18 20 20 21 21 22 22 21 22 22 24 25 25 27 28 29 31 32 35 35 37 41 43 44 45 46 49
8 8 9 9 9 9 9 9 9 10 10 10 11 13 14 15 15 17 18 19 18 19 19 20 20 21 22 23 23 24 25 26 29 31 32 36 37 40 42 45 44 45 48 50 53
12 10 10 9 9 8 8 9 9 10 10 11 11 12 13 14 14 15 17 17 17 18 19 19 19 20 21 22 23 24 27 30 32 34 36 37 39 43 47 47 48 49 51 52 52
12 10 9 7 9 9 8 7 9 10 10 11 11 11 12 13 14 14 14 15 16 16 18 18 19 21 24 25 27 28 31 35 36 39 43 41 43 44 45 46 47 48 49 50 51
13 12 10 9 8 7 7 8 8 8 9 9 10 11 12 12 12 14 15 16 18 19 21 22 23 25 28 30 33 34 36 38 40 42 43 45 45 43 41 42 44 45 49 50 50
13 11 10 10 10 9 10 9 9 10 11 11 12 12 13 14 15 17 18 20 21 23 25 27 29 31 33 34 38 39 38 39 40 40 40 39 38 39 39 42 44 47 49 51 54

GFSSW_500_spd_060.txt.gz
Wind_Speed
46 49 51 52 53 55 56 56 56 56 53 51 49 48 45 45 46 44 40 39 38 37 37 35 33 33 32 30 29 27 22 20 19 16 16 16 18 19 21 21 21 20 18 15 13
50 53 55 57 59 62 63 63 62 60 58 56 52 50 47 44 46 45 42 40 39 38 37 35 34 32 31 31 29 27 23 20 21 18 18 17 19 21 22 22 21 19 18 14 12
51 51 50 51 52 53 55 57 61 62 62 59 56 52 49 46 45 45 45 42 40 39 38 35 34 32 29 29 29 27 24 21 22 19 18 18 18 20 22 22 21 19 18 16 14
47 46 44 44 46 50 51 53 51 55 58 60 57 54 51 48 45 47 46 44 41 40 38 37 34 31 34 30 27 27 24 22 23 21 18 18 18 19 21 22 22 19 19 18 18
42 42 44 45 45 45 48 50 48 47 52 54 56 54 52 49 45 47 46 44 41 40 40 37 35 32 31 31 26 25 25 24 23 24 23 20 18 19 20 22 20 20 20 20 20
40 41 40 39 39 40 40 40 42 43 47 50 54 54 52 49 47 46 46 44 41 41 39 36 36 36 32 26 26 25 25 24 22 23 24 21 17 19 22 21 22 21 21 22 22
36 32 32 34 33 30 32 34 37 41 44 49 52 54 51 49 47 44 45 43 41 41 38 36 32 35 31 32 32 29 24 22 22 23 22 20 16 24 23 21 22 22 23 24 25
26 24 23 20 22 27 29 31 36 37 43 46 49 50 48 48 45 43 44 43 41 39 36 35 33 35 28 30 26 21 23 21 21 25 22 20 14 25 24 24 25 25 26 27 28
19 13 9 10 17 26 27 28 32 33 41 41 45 46 47 45 44 42 42 41 40 38 35 34 32 30 33 34 35 28 23 23 23 24 24 21 15 25 26 25 26 26 28 29 30
18 11 4 5 15 23 23 24 27 32 37 40 42 43 42 42 41 40 40 39 38 36 34 33 32 31 29 30 25 24 26 23 23 25 24 21 17 25 27 27 27 28 30 31 32
18 13 9 12 15 18 20 23 29 34 36 39 40 40 40 39 38 38 38 37 36 34 33 32 28 26 23 25 25 27 29 26 24 26 25 23 18 22 27 26 28 30 32 33 35
18 15 15 17 21 25 30 34 36 38 38 38 37 37 37 36 34 35 35 35 34 32 31 32 29 28 29 29 28 29 28 26 26 27 28 24 19 20 25 28 30 31 31 34 34
18 16 19 24 28 31 34 36 36 36 36 35 34 35 34 33 34 34 34 34 32 30 28 28 28 28 28 27 27 27 27 27 27 26 27 25 21 19 26 30 31 33 33 34 34
19 18 20 26 30 32 33 33 33 33 32 32 33 33 33 31 31 34 33 33 30 27 26 28 26 24 24 25 25 25 25 25 26 26 26 25 29 20 29 32 32 33 33 32 31
18 20 22 24 28 28 28 29 28 28 29 30 30 30 29 32 31 29 30 29 27 25 23 24 22 22 22 20 20 20 22 24 25 27 28 24 32 25 27 30 31 31 30 30 30
16 17 19 21 24 24 25 25 25 18 19 28 27 29 31 28 29 32 26 26 23 22 22 22 22 21 21 22 22 23 24 26 27 28 30 28 30 30 27 29 26 26 27 28 29
11 12 13 22 21 22 22 22 20 18 18 25 25 24 37 33 28 26 24 21 19 18 18 19 20 20 21 22 23 24 25 27 30 29 30 29 29 27 26 26 28 26 26 28 31
9 9 11 20 20 21 21 19 15 16 13 20 21 20 19 19 21 20 17 16 15 17 17 18 18 18 19 21 23 25 26 28 32 30 29 28 29 28 28 27 28 29 30 32 33
9 12 17 19 21 22 21 14 14 13 17 18 17 17 18 19 17 15 15 15 15 15 16 16 17 18 20 22 24 25 26 27 29 30 30 28 28 29 29 29 31 32 33 36 37
9 12 18 22 23 23 18 16 15 13 14 14 15 16 16 16 15 14 14 14 14 15 16 16 18 19 21 22 23 25 25 25 27 30 30 30 30 30 31 32 33 35 37 38 40
8 10 13 17 19 22 19 19 17 16 14 14 14 14 14 13 13 13 13 14 15 16 17 18 19 19 22 22 23 24 25 26 28 30 32 32 31 32 32 34 36 38 39 41 43
6 8 11 14 16 17 16 15 14 13 13 13 14 13 13 13 13 14 15 16 16 17 19 20 20 20 22 23 24 24 25 26 28 29 31 32 33 33 36 38 39 40 42 45 48
6 7 9 12 14 14 15 15 13 11 10 10 9 10 11 11 12 13 15 16 16 17 18 19 19 19 20 22 22 24 25 27 28 29 30 34 34 37 40 41 43 45 48 50 52
12 9 10 12 14 14 14 14 13 12 10 9 9 10 11 12 12 12 14 14 15 16 16 17 18 19 21 21 21 23 25 28 30 32 34 34 37 41 44 46 48 49 50 51 51
16 13 13 13 13 14 13 11 11 11 9 9 10 10 10 10 11 12 12 13 14 15 16 16 17 19 21 22 24 26 29 31 33 36 39 39 41 41 43 45 46 47 48 49 49
17 16 15 14 14 13 12 12 12 10 9 9 9 9 9 9 10 11 11 12 14 15 17 18 19 22 24 27 29 30 32 35 38 39 41 41 40 40 41 42 41 43 44 45 47
18 17 15 14 12 13 12 10 9 9 9 9 9 9 10 10 11 12 14 15 17 19 21 23 25 27 27 30 34 35 34 36 37 37 37 36 38 38 39 40 40 42 46 50 53

GFSSW_500_spd_063.txt.gz
Wind_Speed
43 44 45 45 46 46 47 48 48 48 48 48 48 47 46 45 45 44 41 39 38 37 37 36 36 35 35 34 32 30 24 22 22 21 20 18 19 19 19 19 19 18 17 16 16
42 43 45 47 50 52 54 54 55 54 54 53 51 50 48 47 47 44 43 42 40 39 39 38 37 35 36 34 33 30 26 22 23 23 21 20 20 22 21 21 20 19 17 15 15
41 45 49 53 56 58 60 61 61 62 63 60 57 55 52 50 47 42 47 46 43 41 40 38 37 36 35 34 32 30 27 23 24 23 22 20 21 21 21 22 21 19 17 15 14
45 50 52 52 53 54 54 55 57 60 61 62 62 59 56 53 49 46 48 48 46 43 41 38 37 37 33 33 31 29 25 23 23 23 20 20 20 19 20 22 22 20 19 16 16
45 44 45 47 49 49 50 49 50 52 55 55 55 59 57 56 51 48 48 48 47 44 42 39 38 38 37 32 31 29 24 22 23 22 21 19 19 19 21 23 22 21 19 19 19
38 41 45 48 47 47 49 50 50 50 50 48 48 52 57 55 53 49 47 48 47 45 42 38 40 40 38 35 32 29 28 22 22 24 25 23 18 18 23 24 23 22 21 22 22
37 42 43 38 40 40 38 39 41 44 43 41 42 48 53 55 53 49 47 47 47 45 43 41 39 39 37 33 28 24 27 21 20 24 25 23 17 23 24 23 23 23 24 24 25
38 37 35 30 29 30 29 28 29 31 32 34 39 45 50 55 52 49 47 47 47 44 43 41 37 38 34 31 27 29 29 25 19 23 24 23 17 25 26 24 23 23 25 27 29
34 32 25 22 17 18 19 22 25 28 30 33 38 43 47 52 50 49 47 46 45 44 43 40 36 37 36 36 29 32 26 23 22 24 25 22 17 25 27 27 25 26 26 28 29
30 27 17 12 12 13 15 20 18 20 24 31 36 38 43 45 46 46 45 44 43 42 41 37 37 37 37 29 28 30 27 32 25 25 26 22 18 24 26 25 27 28 29 29 30
26 22 12 4 2 9 18 17 17 19 24 30 34 37 41 41 42 44 42 41 41 40 38 36 36 34 30 28 26 26 26 21 24 28 26 24 16 21 27 24 27 28 28 29 31
23 21 11 6 11 14 16 17 19 24 28 31 34 37 37 38 39 39 38 38 38 37 36 35 33 31 30 28 26 25 24 25 28 27 27 24 17 21 25 28 28 29 29 30 31
20 19 16 12 12 15 18 23 26 30 31 33 33 35 35 35 36 36 35 35 34 34 33 33 32 30 28 29 28 26 28 29 30 27 28 25 19 18 25 28 29 30 32 32 32
18 17 19 20 22 25 26 28 28 28 30 30 31 31 32 32 32 32 32 32 32 33 33 33 32 31 30 29 29 27 26 27 27 27 27 25 26 19 26 29 30 31 32 32 32
16 16 18 21 24 24 25 26 24 22 26 28 28 30 30 30 29 30 30 29 30 29 30 29 27 26 25 26 26 23 22 22 23 24 25 22 28 24 26 28 30 31 30 30 30
11 10 15 20 20 21 23 21 18 16 17 23 24 25 27 29 27 28 27 27 28 28 30 29 27 24 23 23 22 21 21 22 24 25 27 24 26 29 28 27 27 28 28 28 29
7 7 12 17 16 18 18 20 17 12 17 21 22 24 26 25 24 24 27 27 25 27 26 24 22 22 22 21 21 22 22 24 26 25 26 27 27 27 27 27 27 28 28 28 30
2 3 11 15 13 15 13 16 13 10 15 19 18 18 24 23 24 23 26 24 24 22 21 20 19 18 17 19 20 20 21 23 28 27 27 27 28 27 27 26 26 27 29 30 30
6 2 8 13 13 16 11 12 11 7 13 13 9 19 15 19 18 20 18 16 17 18 18 14 14 14 16 18 19 20 23 24 27 28 28 27 26 27 27 27 28 29 30 32 33
4 6 9 14 17 12 13 12 11 10 11 9 9 8 9 10 16 14 15 15 14 13 13 13 14 15 16 19 20 22 23 24 25 29 28 28 28 28 28 29 31 32 32 34 36
4 7 10 12 15 15 15 16 13 12 11 9 10 10 10 10 12 12 12 13 12 12 13 14 14 15 17 19 20 21 22 24 26 27 29 29 29 28 30 31 33 34 36 38 41
4 8 11 13 16 13 13 13 13 11 11 10 9 9 11 12 14 14 14 13 12 12 13 14 14 16 18 19 20 22 22 24 26 27 28 30 30 30 31 34 36 39 41 43 46
6 8 10 13 15 16 14 13 11 10 10 10 11 12 12 13 13 12 12 12 12 12 13 14 15 16 17 18 19 21 22 24 25 26 26 30 31 34 37 40 42 44 46 47 48
10 7 8 13 16 17 17 15 13 12 12 11 12 12 13 13 13 12 12 12 12 12 13 14 15 16 17 18 19 20 21 23 26 28 31 32 36 39 43 44 45 46 47 46 45
17 12 11 13 17 19 18 16 15 14 12 12 11 11 11 10 10 10 11 11 11 12 13 13 14 16 17 18 20 22 24 27 30 33 36 37 39 41 43 44 44 44 43 42 42
24 19 16 16 17 16 15 15 14 12 11 9 8 8 8 8 8 9 9 9 10 11 12 14 15 18 19 22 25 26 29 32 35 37 39 40 40 40 39 39 39 40 40 42 45
24 22 21 19 17 17 17 16 13 12 11 9 8 8 8 8 8 9 9 10 12 13 15 18 20 23 23 26 29 31 32 35 36 36 37 37 37 37 37 37 39 42 45 48 51

GFSSW_500_spd_066.txt.gz
Wind_Speed
37 38 40 41 42 43 43 44 44 45 46 46 45 45 44 45 45 43 40 40 39 37 36 37 36 36 35 34 32 30 28 24 23 23 23 21 20 21 20 18 18 17 19 20 21
39 41 42 43 45 46 46 47 48 48 48 49 49 46 46 46 46 45 41 44 43 41 39 38 37 38 38 35 33 31 29 26 23 24 24 23 22 21 22 21 21 19 18 18 19
40 41 42 43 44 47 50 52 53 54 54 54 54 52 50 47 47 44 46 46 46 45 42 41 39 39 39 37 35 33 30 26 23 24 25 24 22 22 22 23 22 21 18 17 17
39 40 43 47 51 54 56 59 60 62 62 61 60 59 56 53 51 48 49 49 49 48 45 42 41 41 40 39 36 33 30 26 23 24 24 24 23 22 22 23 23 22 20 18 17
38 42 46 49 50 52 54 57 60 60 60 61 63 64 62 57 54 52 52 51 51 50 48 45 42 41 41 38 35 33 29 25 23 23 23 22 21 22 23 23 24 23 21 19 20
39 42 42 43 47 49 52 55 55 56 56 54 54 59 63 61 58 55 53 52 51 51 49 46 43 42 41 38 37 35 28 27 23 21 22 23 22 21 24 24 23 23 23 22 23
36 37 41 46 45 48 47 46 46 47 49 51 50 50 54 51 58 58 55 54 51 52 50 47 43 43 41 41 39 41 32 26 25 24 23 25 22 23 24 25 25 24 24 24 26
34 39 43 41 43 40 36 36 34 33 35 41 45 43 40 50 54 58 56 54 52 51 50 47 45 44 43 41 41 41 35 27 20 22 24 25 20 24 27 27 26 26 26 25 27
34 38 37 38 35 31 25 22 20 24 25 29 35 34 40 45 49 55 54 53 51 51 49 47 45 44 43 41 38 36 32 31 24 23 23 25 21 25 28 29 28 28 28 28 29
32 35 33 30 25 19 17 13 10 15 19 24 30 35 39 40 45 51 52 51 50 49 48 47 45 44 41 41 39 32 33 30 23 27 29 25 21 26 29 29 28 29 29 29 30
30 31 31 22 14 12 4 2 4 10 13 19 26 31 35 37 42 47 49 48 47 46 46 44 43 41 40 37 35 34 28 26 29 26 30 27 22 25 29 27 29 29 30 29 31
27 27 26 17 8 3 2 2 6 8 12 18 25 28 32 36 39 43 45 45 43 43 42 42 39 40 40 36 34 32 26 24 23 25 24 27 21 25 28 29 29 30 30 30 31
24 25 21 17 8 5 6 7 8 12 18 22 25 28 32 34 36 39 40 40 39 39 39 37 36 37 37 33 32 31 29 30 26 29 29 28 24 23 27 28 29 30 30 31 32
22 21 19 17 14 11 11 12 14 17 20 21 26 28 31 32 33 36 35 37 36 36 35 35 35 34 34 34 32 30 29 27 29 30 30 26 28 22 27 28 29 30 31 32 32
18 15 17 16 16 16 17 18 18 15 17 20 24 25 29 29 32 33 32 32 32 31 32 33 32 31 31 31 31 31 30 28 29 29 29 23 27 23 25 28 29 30 31 31 31
16 12 12 10 12 10 12 16 15 12 11 17 19 21 25 25 26 29 28 28 28 29 30 30 30 31 32 33 32 29 26 25 25 25 26 23 24 28 26 27 29 29 29 29 29
15 13 6 6 8 6 6 20 14 10 16 15 15 19 24 26 25 26 26 27 27 27 28 29 29 29 30 30 28 25 22 23 25 25 25 24 26 27 27 28 28 28 28 28 29
8 11 4 1 4 3 12 19 18 17 10 12 15 17 20 20 21 24 23 23 22 22 22 22 26 26 26 25 23 21 20 21 24 24 25 25 27 26 26 25 26 27 28 28 29
8 6 3 1 2 5 14 17 15 10 12 10 13 15 16 19 19 23 22 20 20 18 22 22 22 22 21 21 20 18 19 21 24 25 27 26 26 26 25 27 27 28 29 30 31
8 4 5 4 3 6 14 12 10 6 3 12 14 15 16 19 15 10 18 17 15 18 18 18 17 18 17 17 17 18 19 21 22 26 25 26 26 27 26 28 29 30 31 33 35
7 6 7 7 6 6 11 11 13 7 9 9 9 9 6 11 14 12 11 14 15 15 15 16 15 15 16 16 17 18 19 21 23 24 26 27 30 27 28 30 31 33 34 37 39
8 9 9 9 12 8 10 11 12 11 9 8 8 9 8 9 10 11 13 13 13 13 14 14 14 14 15 16 17 18 19 21 23 24 25 27 29 29 30 33 35 38 40 42 44
8 11 12 12 13 12 12 12 10 10 9 7 6 6 8 8 9 10 10 11 12 12 13 13 13 14 15 16 17 18 19 20 22 24 23 28 31 32 35 38 40 42 44 46 47
14 10 12 14 15 17 15 14 10 8 9 9 9 9 9 9 9 10 11 12 13 13 14 14 14 15 15 15 16 17 18 20 22 25 29 29 35 37 41 42 43 44 45 45 45
22 14 12 13 20 21 21 18 16 14 12 11 10 11 11 12 13 13 13 13 13 13 12 12 13 13 14 15 16 17 20 23 26 29 32 35 36 38 40 42 43 43 43 44 44
29 22 18 14 18 22 22 19 18 15 13 12 11 11 10 10 11 11 11 11 11 10 10 10 11 12 14 17 19 20 24 26 28 30 31 33 34 37 37 38 39 40 42 46 49
32 28 24 20 20 20 19 20 18 15 13 12 11 10 10 10 10 9 9 9 8 9 10 11 13 16 16 20 22 22 24 26 26 26 28 29 31 33 35 38 41 43 46 48 51

GFSSW_500_spd_069.txt.gz
Wind_Speed
33 35 37 39 40 41 42 42 43 44 45 46 45 44 44 44 43 43 40 39 40 39 37 37 37 37 35 33 32 31 28 25 25 26 28 24 23 22 22 21 20 21 23 25 23
38 41 43 43 43 44 44 45 46 46 46 47 48 48 46 47 47 46 42 42 43 43 41 40 39 39 38 35 35 34 30 25 28 25 27 25 24 22 23 23 23 23 23 23 23
39 40 41 42 43 44 45 45 46 47 48 48 49 50 50 48 48 47 48 47 45 46 45 43 41 40 40 39 36 35 31 28 30 27 27 26 25 23 23 25 26 24 22 22 22
37 39 40 40 42 44 46 49 51 53 54 54 54 54 54 52 51 51 50 51 48 47 48 46 45 42 42 41 38 37 33 32 30 27 26 26 25 24 24 26 26 25 24 23 22
36 37 38 41 44 48 50 52 55 58 59 60 61 61 60 59 54 54 51 53 52 49 49 49 47 44 44 43 42 38 38 34 31 29 25 24 24 25 24 25 24 26 26 25 24
34 35 37 41 43 46 50 54 57 60 61 62 62 63 65 63 57 58 55 55 54 51 50 50 49 47 45 46 42 41 40 35 32 29 25 24 23 22 25 26 25 24 25 25 25
32 33 36 38 43 47 54 57 56 56 57 58 59 59 61 55 57 61 59 58 56 54 51 52 53 48 46 45 43 42 39 36 35 31 29 28 25 24 25 28 26 25 26 26 26
31 33 35 39 44 51 50 47 44 42 41 42 43 45 48 49 54 59 59 58 57 55 53 52 52 51 48 46 43 42 40 38 40 35 29 29 26 30 22 28 28 28 28 28 28
29 32 35 40 44 42 36 31 25 26 29 27 26 29 35 43 42 49 54 57 58 55 54 53 52 51 49 45 44 44 41 40 43 41 31 29 27 26 25 29 29 29 30 30 31
29 32 35 39 36 31 28 20 15 15 15 18 21 25 32 38 41 45 49 54 56 55 53 53 51 50 47 47 46 42 41 41 39 36 31 29 26 28 24 28 30 30 31 30 31
29 32 36 34 29 24 19 18 14 8 6 11 18 24 29 34 37 41 44 49 52 53 51 50 49 50 48 45 43 41 43 40 35 33 35 38 23 29 34 26 30 30 30 31 32
28 30 31 31 25 18 15 13 11 9 5 6 12 18 25 32 34 36 39 45 47 48 48 49 48 46 43 42 43 41 38 38 37 32 24 29 29 30 30 28 30 31 32 33 33
27 28 28 26 24 15 12 11 10 6 2 5 10 15 23 28 31 35 35 41 41 43 43 40 40 44 43 40 39 40 33 35 34 31 29 35 25 24 23 29 32 34 33 33 33
24 27 26 22 21 17 11 11 11 9 7 5 12 18 22 24 28 32 36 37 38 38 36 36 41 38 38 38 37 36 36 32 34 34 34 25 24 26 25 29 31 32 31 32 33
19 26 23 19 15 13 9 12 8 6 8 7 10 14 21 25 27 27 29 30 33 33 33 35 32 35 35 37 34 36 30 31 31 32 30 26 28 27 25 26 27 28 30 31 31
15 21 23 17 17 15 12 6 9 9 9 7 9 15 19 21 23 24 27 28 29 28 30 31 30 31 32 29 31 32 31 31 31 31 32 29 24 26 26 27 29 30 30 31 31
15 15 20 18 14 18 12 3 6 9 8 9 10 14 19 20 20 21 23 24 25 26 27 27 29 29 28 28 29 28 27 28 30 29 28 28 25 30 26 28 29 30 30 29 29
17 11 14 13 11 10 10 15 14 0 4 7 14 13 16 21 19 21 23 23 23 24 24 24 26 29 29 29 29 29 29 26 27 14 18 24 26 28 26 27 27 28 30 31 31
18 10 9 10 6 5 6 9 6 11 6 3 4 15 8 20 22 21 22 22 22 21 21 20 25 24 24 24 24 25 26 24 26 26 26 25 28 26 24 26 28 29 30 32 33
19 12 6 8 5 3 4 7 10 11 9 8 3 5 10 9 18 22 20 19 18 18 18 19 18 19 20 22 23 23 22 22 23 23 23 18 25 30 25 27 29 31 32 33 35
19 13 8 6 5 3 2 6 9 12 15 19 9 8 3 14 11 24 21 18 14 16 15 16 16 17 19 19 20 20 19 20 21 21 22 22 22 31 28 30 31 32 34 37 39
20 16 12 9 8 7 4 3 5 5 7 8 7 5 5 9 10 11 15 13 13 14 15 15 16 17 17 18 17 17 18 19 20 25 21 24 26 27 29 32 34 36 39 41 43
21 20 17 13 12 12 10 7 6 5 2 2 2 2 2 2 4 7 9 10 11 12 12 14 14 14 14 16 16 17 18 18 19 21 20 23 28 30 31 34 37 38 39 40 41
25 24 19 16 16 17 14 14 11 8 6 5 5 6 5 5 6 7 9 9 10 11 12 13 13 15 17 15 15 15 16 17 18 19 23 24 29 32 32 34 35 36 37 37 38
29 28 21 18 20 21 21 17 16 14 12 12 10 10 10 9 10 10 10 11 11 11 12 13 13 14 14 14 13 13 14 16 19 22 25 27 29 31 32 31 30 30 33 36 41
31 32 30 22 18 24 25 22 22 21 17 15 12 12 11 10 10 10 9 9 9 10 11 12 12 12 11 12 13 15 18 20 22 24 26 26 26 26 24 24 29 36 40 43 45
39 37 38 31 23 21 23 24 24 23 18 15 13 12 10 9 8 8 8 8 9 9 10 10 10 11 13 16 17 17 20 23 22 22 23 24 22 20 27 32 36 40 42 46 49

GFSSW_500_spd_072.txt.gz
Wind_Speed
28 31 34 36 38 40 41 42 42 41 41 42 41 41 43 44 44 43 39 38 39 38 38 36 35 35 36 34 32 31 29 23 21 20 29 25 23 22 22 19 21 22 23 24 23
32 34 36 38 40 41 43 44 44 44 44 44 44 44 44 45 46 46 44 43 41 42 41 39 39 38 38 36 34 34 31 23 19 23 26 19 24 22 23 23 22 23 24 27 26
32 33 34 36 37 39 41 43 44 45 46 46 47 47 47 47 47 49 48 47 46 45 44 43 42 40 38 39 36 35 32 24 29 27 25 27 27 21 24 24 24 23 22 28 26
33 33 35 36 38 39 41 42 45 46 48 49 50 50 50 49 49 50 49 50 50 48 47 46 45 43 42 42 39 37 36 31 32 26 29 29 27 23 23 27 24 27 26 24 25
33 33 34 35 36 39 42 45 48 51 53 55 56 56 55 54 50 53 50 51 52 51 50 48 47 46 44 42 41 39 37 38 37 29 32 32 28 25 22 26 25 24 27 24 25
33 33 32 34 36 40 42 45 49 53 56 59 61 61 61 57 54 58 56 53 53 52 51 51 49 48 46 46 44 43 41 42 36 32 35 32 31 26 23 25 26 25 25 26 26
33 31 31 33 34 39 44 50 54 58 60 59 60 63 63 60 60 59 59 57 57 56 54 52 50 51 49 48 47 45 40 39 37 35 34 35 32 25 33 26 26 28 25 26 26
32 30 30 31 38 42 46 47 48 47 46 46 46 51 55 57 60 61 60 57 57 57 55 54 53 54 51 51 48 45 42 41 40 39 39 37 34 33 32 27 29 27 28 27 28
31 28 27 32 32 40 41 40 39 34 29 28 31 34 34 38 40 48 56 56 57 57 57 55 53 51 51 50 47 46 43 41 42 40 39 39 42 40 31 28 31 27 27 26 28
31 27 27 26 33 38 38 34 33 30 24 20 19 20 23 29 35 42 47 50 54 57 58 57 54 53 52 50 49 45 45 40 42 41 41 40 42 55 39 35 29 29 26 29 27
29 26 26 27 31 33 32 29 28 27 23 17 12 12 14 17 26 35 39 43 49 54 55 55 54 54 51 46 43 41 43 43 45 43 38 39 38 37 37 29 27 31 28 29 30
28 26 27 28 27 28 28 26 25 22 19 14 9 8 9 13 21 30 33 36 42 47 50 50 52 48 45 42 40 39 44 41 38 30 34 39 34 28 27 32 32 31 23 30 34
27 27 28 28 26 27 24 26 23 19 15 14 8 2 4 11 18 26 27 31 33 38 39 44 44 40 40 39 43 42 46 42 42 42 35 35 36 35 29 29 27 22 27 33 33
27 26 28 27 26 30 22 27 23 18 14 16 10 4 8 13 19 24 25 28 32 31 34 27 38 37 39 43 37 38 37 39 43 35 33 33 33 31 34 21 24 23 29 30 32
26 25 24 25 25 26 23 20 24 14 14 14 11 4 8 13 15 22 19 22 30 27 27 32 29 35 34 35 35 35 37 34 36 36 34 32 31 25 29 27 20 22 25 27 30
26 26 22 21 21 20 24 17 20 17 13 8 8 5 7 9 13 21 21 22 26 28 26 31 33 27 33 31 30 30 30 30 32 31 34 24 30 28 29 24 25 24 26 28 29
24 26 21 17 16 14 13 12 18 13 9 5 4 5 9 12 13 18 18 19 22 21 27 25 24 27 24 24 25 28 29 27 28 28 27 26 26 32 25 25 27 27 28 28 28
20 22 21 13 12 15 14 12 15 13 9 5 5 3 11 11 12 9 19 20 20 22 20 19 21 22 24 23 24 22 24 24 26 14 18 23 26 24 25 24 27 26 27 28 28
20 19 21 12 10 14 12 13 15 20 7 10 5 2 7 13 14 14 17 20 21 21 17 14 18 19 22 21 23 23 24 24 22 23 25 27 30 30 24 23 25 26 27 28 29
16 17 17 14 8 10 10 9 12 19 20 10 7 4 15 15 16 16 15 18 21 20 20 20 17 19 19 21 22 21 21 22 25 26 27 17 21 31 23 21 24 26 28 29 31
13 14 17 15 11 6 8 8 11 15 17 21 23 22 25 14 14 14 17 19 21 19 17 16 15 15 17 18 19 18 19 21 23 22 22 19 26 29 28 25 26 27 30 33 36
14 14 14 18 12 11 7 5 3 6 12 13 15 15 12 12 20 13 2 5 11 14 14 14 14 15 14 16 16 16 16 17 19 22 18 20 23 25 26 25 28 31 33 35 35
11 12 13 19 14 16 12 9 4 1 4 6 7 7 10 9 9 10 15 8 9 10 12 12 13 11 14 15 14 14 15 17 17 17 16 19 21 23 27 28 32 33 31 31 30
17 14 12 16 18 16 19 12 10 7 4 3 5 6 5 2 1 5 5 8 8 10 11 12 12 13 12 10 12 13 14 14 15 14 18 19 25 25 28 27 28 30 28 28 34
21 16 16 15 22 18 22 19 16 13 9 8 8 10 10 9 5 5 8 8 10 10 11 12 13 12 11 11 12 12 13 13 14 17 21 22 26 30 29 24 22 23 32 37 41
20 18 21 17 24 22 23 24 21 19 16 14 13 12 12 11 9 8 8 8 9 10 10 10 10 11 11 11 11 12 14 16 19 21 23 24 24 22 26 25 28 33 36 42 47
25 27 24 21 28 29 24 25 28 27 21 19 16 13 12 10 9 8 8 8 8 9 9 9 10 10 10 12 14 15 17 19 21 21 21 21 20 19 20 26 31 38 44 49 52

GFSSW_500_spd_075.txt.gz
Wind_Speed
25 28 30 32 34 35 37 39 41 43 43 43 42 41 40 38 39 41 40 42 40 40 40 38 36 36 36 35 34 31 30 22 21 26 23 24 24 19 23 22 21 24 20 18 22
29 31 33 35 37 39 40 40 39 40 41 44 45 45 45 43 42 42 43 45 43 44 42 43 40 41 38 37 36 34 32 22 25 27 28 23 22 17 21 22 22 24 24 22 24
32 32 33 34 35 35 37 38 39 40 42 44 45 45 46 46 45 45 45 46 48 46 45 45 44 43 40 39 37 35 32 22 31 30 28 24 24 17 23 23 22 24 24 26 27
34 34 34 34 34 35 36 36 38 39 42 45 46 47 48 48 48 48 48 49 49 49 49 47 47 45 42 41 39 37 32 31 32 32 28 29 25 24 27 26 25 23 23 25 27
32 34 33 32 32 33 34 37 40 43 47 50 51 51 51 51 46 53 51 51 51 51 50 49 48 47 45 43 42 39 34 33 36 30 30 28 26 24 26 28 28 26 23 22 25
33 33 31 30 30 32 35 39 44 47 51 55 57 58 57 55 54 55 54 52 52 53 52 53 50 49 48 46 44 41 38 36 40 34 30 34 32 30 27 30 30 27 25 23 24
32 31 30 28 30 32 32 33 38 42 44 48 54 59 61 63 61 58 60 55 53 53 53 53 52 53 50 49 48 45 41 42 41 36 32 33 32 32 33 31 31 28 28 24 25
29 29 30 27 30 27 26 34 41 42 43 45 45 40 42 52 57 59 63 60 55 56 53 53 54 53 52 52 50 49 45 42 41 37 35 36 37 34 36 37 35 35 32 28 26
26 27 30 28 29 28 34 41 45 42 41 42 41 35 31 34 37 47 58 61 58 55 54 53 55 55 56 54 52 50 47 42 40 37 36 36 37 38 36 40 36 43 47 30 25
24 25 29 30 30 30 37 38 40 39 38 36 32 28 21 17 20 29 39 51 55 52 56 57 57 56 55 54 50 47 46 43 41 38 38 39 37 37 37 35 34 40 55 44 30
22 24 28 32 30 26 34 31 34 33 30 30 24 19 15 12 11 20 30 40 47 51 56 58 57 57 54 52 46 43 40 40 41 41 41 36 37 37 37 35 37 27 31 38 34
23 22 27 32 29 24 31 30 31 28 25 25 20 16 10 7 4 10 21 33 38 46 50 51 54 52 50 47 43 38 38 41 41 43 39 34 35 33 37 36 33 38 32 37 34
22 20 26 30 31 25 30 26 27 23 22 22 20 17 8 3 4 8 16 23 28 35 40 46 46 46 43 43 39 35 37 38 35 38 40 33 26 27 29 30 32 26 23 23 22
18 18 23 27 32 24 25 22 25 23 20 20 19 15 9 7 3 9 16 17 21 24 29 30 35 38 38 39 38 37 36 38 38 34 31 38 40 29 29 30 24 18 25 27 25
18 17 19 21 28 23 24 26 29 25 22 20 17 13 9 6 3 9 15 13 19 25 29 28 31 31 38 35 37 31 34 35 37 35 35 35 35 27 27 25 18 20 22 23 26
18 17 19 18 21 20 24 25 27 21 23 15 13 8 6 4 4 13 15 17 19 23 26 26 29 32 31 30 30 33 29 26 28 33 35 27 30 33 28 25 22 19 21 24 25
16 16 17 14 18 18 22 22 22 25 22 17 11 9 4 5 7 7 13 21 21 21 25 23 22 24 27 27 29 28 27 27 28 30 28 25 30 29 26 26 21 20 20 22 23
14 17 14 13 14 17 20 23 23 27 23 15 9 5 2 3 6 12 5 23 20 19 12 12 18 22 22 23 24 24 23 25 25 25 26 26 28 24 22 22 22 22 20 22 24
16 14 15 15 13 14 17 19 20 22 26 27 19 3 5 8 4 18 13 11 20 17 16 16 14 18 19 18 19 21 20 19 18 20 22 24 23 23 24 21 19 20 22 24 25
17 11 14 13 12 10 13 13 16 20 23 26 30 13 7 7 5 11 13 14 15 17 20 16 17 18 17 17 18 18 17 19 20 20 22 19 23 25 24 19 19 22 24 25 27
17 12 13 12 13 8 10 10 9 15 19 22 27 25 14 6 6 8 10 14 19 17 15 13 13 14 16 18 18 17 18 20 20 21 21 21 24 24 23 23 21 22 25 27 30
17 14 12 12 9 8 11 12 5 6 9 12 17 20 17 7 6 6 9 14 19 22 21 18 16 12 12 15 16 18 18 19 20 19 18 19 22 21 24 24 21 24 28 28 28
20 18 15 11 11 12 11 8 9 5 4 4 8 11 13 14 15 8 6 5 10 18 15 11 14 11 14 13 12 14 15 16 16 17 17 21 21 23 23 22 22 24 26 24 21
22 18 15 14 14 14 17 10 11 11 8 6 5 7 9 10 11 9 3 3 2 2 2 6 8 8 9 10 12 13 14 15 15 16 19 20 20 21 23 23 23 24 23 23 27
23 20 18 10 11 14 16 14 14 13 14 11 6 7 7 8 6 4 6 1 4 6 7 9 9 9 10 11 11 12 13 14 14 17 16 21 20 20 22 23 22 20 22 28 33
28 24 20 14 16 12 20 18 16 18 21 15 14 10 9 9 7 5 7 8 10 10 10 10 11 11 11 11 11 12 13 14 15 17 17 20 23 22 22 20 16 21 27 33 40
31 28 24 21 20 16 20 25 22 19 22 19 18 17 13 10 8 6 7 9 9 10 10 10 11 11 11 12 13 13 14 16 17 18 20 20 20 21 20 20 26 31 36 42 46

GFSSW_500_spd_078.txt.gz
Wind_Speed
19 22 24 28 30 32 34 35 38 39 40 40 41 42 41 40 40 40 40 43 42 41 41 40 40 40 39 38 37 37 35 28 28 30 27 27 23 23 22 24 22 18 18 21 25
22 26 28 29 30 31 33 35 37 39 41 43 43 42 43 44 46 46 45 45 44 44 43 44 44 42 42 41 40 39 37 28 31 33 30 30 25 24 23 18 18 19 19 22 24
28 30 32 32 32 30 31 33 35 37 39 41 43 44 45 45 46 48 50 48 47 47 46 46 47 46 44 44 43 40 37 30 32 35 33 28 24 23 28 21 18 22 23 23 24
30 32 32 33 32 30 31 33 35 37 39 42 44 45 46 48 49 50 50 52 51 49 49 48 49 47 46 46 45 42 37 33 35 38 34 31 28 24 23 25 25 25 26 26 27
33 32 30 31 30 29 29 30 32 35 37 40 43 46 49 52 53 57 53 52 54 53 51 51 50 49 47 47 46 44 40 36 35 39 33 29 29 28 28 27 26 30 29 27 27
29 28 27 26 26 25 26 29 31 33 37 41 43 46 50 54 56 59 61 55 55 55 53 53 51 52 50 49 49 46 43 38 37 38 33 33 30 28 26 29 34 32 31 30 29
23 25 26 26 26 26 27 29 30 35 39 42 45 46 47 49 50 56 64 63 58 56 55 53 53 55 53 52 51 50 46 42 40 41 36 35 34 31 32 33 30 33 29 27 30
21 23 25 26 26 28 29 30 31 35 40 45 48 47 49 49 48 49 57 66 62 57 55 53 54 56 56 54 52 52 50 46 44 42 39 36 35 36 35 32 30 31 32 31 32
21 20 22 26 28 30 31 28 33 35 38 40 43 44 47 47 45 38 44 52 62 60 56 55 57 55 57 57 55 54 51 48 46 43 40 36 34 34 35 34 33 35 34 26 32
21 24 21 24 27 31 29 26 32 36 35 40 39 39 38 35 27 24 29 36 48 55 56 56 58 57 56 58 57 54 52 50 47 43 39 37 37 35 34 35 36 34 34 33 30
20 22 24 23 25 28 28 28 30 32 31 41 35 31 31 24 19 17 18 27 36 46 54 55 58 60 57 55 54 51 49 45 42 41 40 40 39 36 35 38 38 38 31 29 32
20 23 26 24 25 28 26 25 28 27 33 36 31 26 25 21 15 9 5 14 25 35 48 52 57 56 52 52 50 47 43 42 42 41 42 41 36 34 34 32 33 29 29 33 35
23 23 26 25 25 28 26 26 26 28 28 29 26 25 20 19 14 7 0 4 15 31 42 45 46 44 46 44 42 42 41 39 38 37 38 38 38 37 36 34 30 25 29 32 27
24 22 25 24 24 26 26 27 27 29 27 24 24 21 19 17 14 6 3 7 12 20 30 34 36 43 44 43 40 39 35 35 37 35 35 35 35 35 35 32 22 20 28 28 23
27 25 24 24 24 22 24 26 29 31 25 27 21 18 16 13 10 3 5 9 11 15 23 28 31 34 40 37 37 32 36 35 33 33 30 28 29 25 31 31 23 24 26 26 24
27 30 25 24 23 21 23 25 27 26 23 20 17 15 12 11 10 7 2 10 10 16 21 24 27 31 33 35 35 29 30 31 31 32 34 32 31 30 26 23 24 26 26 26 25
26 27 27 22 23 20 20 21 23 27 25 24 17 8 9 9 9 7 5 10 13 17 22 24 26 28 30 33 31 30 32 32 32 35 36 25 29 24 19 20 22 24 23 22 23
20 25 28 21 21 19 19 18 21 25 26 30 17 7 7 10 12 7 11 9 9 12 19 26 28 26 28 30 28 26 27 30 29 28 22 22 26 23 20 21 22 24 24 22 21
22 24 26 18 18 19 16 17 15 20 25 33 25 10 6 7 9 2 7 7 4 5 13 12 8 24 16 24 28 26 28 25 24 23 22 23 21 21 21 20 21 22 20 20 21
24 23 22 18 16 19 15 16 15 13 17 25 24 12 8 4 4 4 2 8 10 7 8 10 11 12 12 13 27 23 22 23 23 22 21 20 20 21 18 18 20 20 20 21 24
25 23 21 18 16 18 19 13 13 12 12 17 21 19 17 6 5 3 3 4 8 13 13 12 13 15 16 16 16 18 21 23 24 20 21 21 20 18 19 20 20 20 21 23 25
27 25 21 21 17 17 18 13 9 10 10 10 13 14 16 14 2 8 8 5 9 9 16 15 18 17 16 17 17 16 19 20 22 21 21 21 22 19 20 21 21 21 22 25 28
29 25 20 18 20 17 16 12 14 11 11 5 6 9 13 14 14 7 9 5 13 14 14 10 14 13 11 11 12 15 18 18 18 19 20 21 21 19 20 20 20 21 25 28 26
28 27 21 18 18 17 15 14 12 14 14 8 6 6 7 10 11 6 5 4 5 2 13 6 12 11 10 9 11 13 16 16 17 18 19 21 20 19 19 19 21 25 25 22 19
28 28 22 20 20 18 13 16 17 14 14 13 9 8 8 9 8 7 5 2 3 3 2 3 6 8 9 10 11 14 16 17 17 19 21 20 19 18 20 22 23 20 15 20 25
30 28 26 22 20 20 17 18 18 20 15 15 14 13 11 10 9 7 8 7 7 7 7 7 6 7 10 11 13 14 15 16 16 17 18 19 19 21 23 21 17 14 20 26 32
31 29 29 26 24 22 24 21 18 17 20 15 17 17 15 14 12 9 8 10 8 8 9 10 11 10 11 13 13 13 14 15 15 16 19 20 21 20 19 15 16 22 27 33 39

GFSSW_500_spd_084.txt.gz
Wind_Speed
17 18 20 24 27 29 29 29 29 30 31 31 33 36 38 39 39 38 39 38 38 39 41 41 42 41 42 40 40 40 40 39 37 35 31 33 33 31 28 25 25 26 25 26 25
21 24 27 30 33 34 35 33 31 29 29 29 31 33 35 37 39 42 42 43 44 44 43 43 44 44 45 43 44 43 41 37 36 36 36 37 35 32 30 28 26 23 24 24 18
27 29 32 34 35 38 37 33 29 28 27 27 29 31 32 34 36 37 39 42 44 45 48 49 48 46 47 47 47 46 42 39 36 37 39 38 36 33 31 30 25 27 26 25 19
29 31 33 35 34 32 33 34 33 30 29 29 29 29 32 34 34 36 37 40 43 45 48 49 52 53 50 49 49 49 45 41 39 38 40 39 37 34 32 28 28 30 28 22 19
22 26 30 33 33 34 33 32 34 33 32 30 29 31 31 33 35 37 38 38 42 44 47 50 51 54 54 52 51 52 47 44 43 41 40 40 39 39 34 31 29 30 27 24 17
22 21 22 24 29 32 32 31 31 32 33 32 30 31 32 34 37 39 41 43 42 45 46 50 54 55 56 55 55 53 51 46 44 43 40 41 42 40 35 32 30 30 26 24 18
22 22 23 25 28 29 27 29 30 31 32 32 31 30 33 37 40 43 43 48 53 53 51 49 54 58 58 56 55 55 54 51 47 45 42 42 43 40 36 34 32 29 28 25 22
23 24 26 29 31 31 32 31 31 31 33 31 29 31 30 30 32 37 44 48 51 55 56 55 55 58 61 60 57 56 57 55 50 47 46 44 44 41 39 37 32 29 30 28 26
25 27 26 30 32 33 33 32 33 33 29 28 27 26 28 32 38 44 46 48 50 51 50 48 54 60 60 62 60 58 56 55 53 49 48 46 45 43 40 38 34 33 32 30 29
29 31 30 33 33 34 34 33 32 35 32 28 29 27 32 38 39 44 44 46 45 43 45 45 48 58 59 64 62 58 57 56 54 50 48 47 45 44 41 38 36 34 33 32 30
31 32 32 34 34 33 35 34 29 31 31 28 27 31 37 35 36 32 32 32 33 30 30 34 41 51 56 60 59 56 53 53 52 50 47 46 44 41 39 38 37 35 33 33 29
33 33 33 35 34 34 36 36 32 34 30 28 28 35 33 31 27 26 31 29 28 24 18 23 31 39 52 55 55 53 52 50 50 49 46 44 42 42 41 39 38 38 35 32 32
32 32 31 35 35 35 35 37 33 32 30 32 33 33 26 25 24 27 31 28 27 21 20 19 20 31 44 49 51 50 48 45 49 46 45 42 42 42 40 40 39 38 37 34 31
31 32 30 32 35 35 35 38 34 32 31 32 31 21 20 22 24 29 28 23 23 18 15 12 16 23 36 42 44 42 34 42 43 37 39 38 40 37 38 37 38 38 36 35 34
32 32 31 32 34 33 32 36 33 32 34 35 27 21 19 23 24 27 25 20 19 23 8 8 11 20 27 32 36 34 33 34 31 33 34 36 38 34 35 35 32 31 30 32 34
33 32 30 31 33 33 30 34 31 30 31 31 26 24 23 24 24 25 26 24 21 17 8 3 9 16 22 28 32 31 27 27 31 33 37 32 34 29 28 27 28 28 29 31 30
32 32 31 30 31 33 29 31 29 27 30 28 28 24 25 21 24 26 26 25 30 13 9 1 9 15 19 26 28 31 29 28 29 33 32 27 31 24 23 24 22 21 23 26 27
33 31 30 29 30 31 29 27 28 27 25 25 27 27 26 21 21 24 25 28 26 12 8 1 8 14 17 25 26 31 30 29 28 26 23 22 27 21 18 19 23 26 26 26 26
31 31 30 29 29 29 28 25 26 26 23 20 23 24 25 20 20 22 29 22 23 23 22 3 11 13 19 22 27 27 28 25 24 25 23 23 24 19 16 19 23 23 22 23 25
31 32 31 29 28 28 28 25 25 26 22 22 18 22 24 25 22 24 25 19 21 21 20 22 14 17 19 20 24 26 24 24 23 22 21 23 20 19 17 19 22 22 22 25 25
31 31 31 29 29 29 27 25 23 25 21 19 19 17 20 20 22 19 21 20 18 19 16 20 12 10 15 17 20 22 25 24 22 22 22 30 20 17 17 18 20 21 24 25 25
29 30 31 30 29 29 28 24 20 23 24 19 20 17 17 17 17 19 20 21 20 14 14 16 11 10 12 24 21 24 25 23 24 17 13 14 17 16 16 18 19 20 23 23 24
30 30 31 33 30 28 29 25 22 21 22 22 19 19 17 17 13 16 18 16 19 17 13 9 5 5 7 6 13 25 23 19 15 14 16 18 15 14 17 18 19 20 21 23 24
33 30 31 33 32 30 29 27 24 21 20 21 20 20 18 16 16 14 17 15 13 16 15 11 2 3 5 6 3 1 20 19 16 12 10 13 15 17 17 18 18 19 20 21 24
34 33 30 32 33 31 30 28 25 24 20 18 21 21 19 18 15 14 14 14 11 12 10 12 6 5 10 11 8 6 6 9 11 13 14 12 12 14 15 15 16 18 20 23 26
33 34 32 31 33 32 32 30 28 25 22 23 22 24 23 20 18 14 11 14 11 10 10 8 4 4 7 6 5 7 8 9 9 10 11 11 12 14 14 15 17 20 23 26 27
36 32 32 30 32 33 33 32 29 25 25 23 24 23 23 22 19 18 15 13 13 10 10 9 7 7 7 8 8 7 9 9 9 10 10 9 13 13 16 18 20 23 23 23 24

GFSSW_500_spd_087.txt.gz
Wind_Speed
17 20 22 25 28 31 33 35 35 36 36 36 35 34 33 34 36 37 38 38 37 37 37 37 39 39 39 40 39 37 39 36 33 32 32 32 32 30 27 26 26 25 22 23 22
21 25 28 31 34 36 37 38 38 37 33 33 35 35 35 34 33 35 38 38 40 40 41 42 42 40 41 42 43 43 41 37 33 31 35 37 35 34 31 27 28 26 27 27 19
24 28 30 32 32 31 31 31 32 31 30 29 30 32 33 33 34 33 35 36 38 40 42 43 45 46 45 44 44 45 44 39 35 34 35 38 38 36 31 30 27 26 30 27 21
18 19 22 21 21 23 26 28 29 31 32 31 31 31 33 32 32 32 33 35 36 39 40 42 44 47 48 49 47 47 46 43 39 38 38 39 38 36 34 29 28 29 31 27 22
19 21 21 23 24 27 27 28 29 31 31 32 32 32 31 33 33 32 32 33 34 36 38 40 42 46 50 50 51 53 49 47 43 42 40 41 40 41 34 32 31 31 30 27 25
19 21 23 25 26 29 30 32 34 31 31 32 31 30 30 31 31 32 34 35 35 37 38 40 43 46 49 51 52 53 54 51 47 45 44 43 42 42 37 35 33 32 30 30 27
24 26 27 28 28 31 32 34 35 34 32 30 30 27 26 27 28 27 27 28 31 35 40 42 41 42 51 52 54 54 55 55 52 48 47 44 46 43 40 38 36 34 33 32 28
28 30 31 30 31 33 33 35 36 36 30 29 25 24 23 22 20 26 33 37 40 43 45 47 49 50 49 53 56 56 57 56 54 52 49 47 45 43 42 39 37 35 33 32 29
29 30 31 33 34 35 35 36 35 35 30 32 25 22 22 21 27 34 36 38 39 38 42 46 51 53 54 53 58 60 60 58 56 54 52 50 47 46 44 42 37 35 32 31 30
30 31 31 32 34 35 36 36 36 36 30 32 24 23 24 29 30 29 31 31 36 39 39 40 42 40 47 52 56 59 59 59 57 54 52 50 48 46 45 42 38 36 34 31 34
30 31 33 33 33 34 36 35 34 33 29 29 26 21 26 28 27 26 27 34 36 36 35 37 37 36 36 42 49 55 57 57 57 53 52 49 47 45 44 42 39 37 36 34 35
33 31 33 33 33 32 34 34 34 35 30 30 27 26 26 27 24 26 30 30 30 30 33 34 29 28 29 36 46 53 52 55 55 53 50 49 47 46 44 41 40 40 38 35 33
33 33 33 33 34 31 32 35 33 34 29 29 27 24 28 30 28 25 26 27 30 30 31 31 20 18 22 25 36 45 48 49 48 50 48 46 46 45 44 42 41 39 36 36 30
33 32 33 33 33 33 32 33 33 33 30 29 28 24 26 29 26 24 26 31 35 27 28 24 15 14 14 19 28 37 40 39 43 45 44 43 44 41 40 39 39 37 35 34 33
31 32 32 32 33 32 30 32 32 32 32 30 29 28 28 32 28 26 28 30 34 29 22 17 12 9 6 12 18 27 34 31 25 38 34 35 41 37 37 35 34 34 34 34 33
30 32 31 31 32 31 29 31 29 31 31 28 30 31 29 31 26 26 29 26 32 22 18 14 10 3 3 13 18 24 26 28 33 32 34 27 30 31 33 31 31 30 29 30 32
32 29 31 31 30 31 29 29 29 28 30 30 29 31 33 32 27 27 27 24 26 26 18 14 8 4 5 11 20 26 26 27 20 25 28 28 28 23 24 24 23 24 25 26 28
32 32 30 29 29 30 29 27 28 26 27 28 26 28 31 32 28 28 27 28 28 32 20 13 6 0 7 12 17 27 26 20 23 25 23 20 26 15 17 17 19 19 20 21 22
33 31 31 29 28 28 29 27 26 25 26 25 24 23 24 31 33 29 30 30 26 27 30 23 2 4 5 12 16 23 29 24 22 19 17 21 18 14 16 16 18 19 21 24 25
37 33 31 30 27 27 28 27 25 23 23 25 24 22 22 24 29 29 28 30 29 25 27 19 8 3 6 10 16 17 17 17 19 17 16 16 12 13 16 17 19 21 24 25 24
36 30 31 30 28 27 26 26 25 23 21 23 23 21 21 20 22 27 28 24 28 28 21 21 10 2 5 8 14 17 18 17 17 13 12 10 9 13 15 18 21 23 24 25 25
34 31 29 29 28 28 27 26 26 24 22 22 22 22 21 20 17 22 25 24 25 26 24 19 15 20 4 10 11 14 18 17 16 13 12 12 14 20 16 17 20 21 22 23 24
37 32 32 29 27 28 28 28 26 25 22 20 22 21 21 20 18 17 21 22 20 23 21 19 13 14 15 4 9 12 14 14 15 12 11 13 6 12 15 17 18 19 21 23 24
35 35 32 29 28 27 27 27 27 25 23 22 21 21 21 22 20 19 18 21 17 18 18 19 18 12 10 13 13 14 15 14 16 9 6 6 10 14 14 14 17 20 20 20 21
35 36 32 30 28 26 26 27 27 27 24 21 21 21 20 22 20 17 17 17 19 16 13 13 14 13 14 7 7 8 6 7 12 7 4 6 5 10 12 13 16 17 17 18 20
38 38 32 30 29 27 26 25 25 27 27 24 20 21 22 20 19 15 15 16 16 15 13 11 8 7 10 7 5 4 3 0 2 4 4 6 10 9 11 13 14 16 17 20 24
41 40 35 28 30 28 27 27 24 25 27 26 24 20 22 22 20 18 17 16 15 15 12 11 8 6 4 4 6 6 3 2 4 6 6 8 10 11 12 14 16 18 21 24 24

GFSSW_500_spd_090.txt.gz
Wind_Speed
16 19 22 24 27 31 34 36 38 40 40 39 40 39 38 35 35 38 38 40 39 38 38 39 38 39 39 40 38 37 39 35 32 31 28 33 33 31 30 28 26 27 25 23 22
22 22 22 21 22 24 25 27 30 32 35 36 34 31 32 33 33 35 38 39 40 39 40 41 39 41 41 39 41 41 41 37 35 31 31 35 37 35 32 30 27 26 23 25 24
14 17 17 18 18 19 21 25 26 28 30 31 33 33 30 29 30 32 34 35 35 35 35 38 40 42 44 45 45 42 42 41 40 35 34 36 38 38 34 33 26 27 31 30 26
14 16 18 19 21 23 24 26 28 29 31 33 31 33 33 32 30 31 32 34 35 34 34 34 36 39 41 44 46 47 46 44 42 39 39 38 39 39 38 33 30 32 34 31 26
16 18 19 21 23 23 27 29 30 31 32 32 31 31 31 30 28 28 29 31 32 33 33 34 35 38 40 42 44 48 50 50 47 42 41 43 42 42 39 35 34 34 34 31 28
20 23 25 26 28 29 30 31 33 35 33 35 29 25 24 24 24 26 27 28 29 31 34 35 36 38 40 41 43 47 50 52 52 47 45 46 46 45 40 38 37 36 36 35 32
23 24 25 27 29 31 32 33 35 33 33 35 26 22 20 19 20 22 22 18 21 26 30 33 35 38 41 43 46 47 50 52 53 52 49 49 49 47 45 42 39 38 38 38 36
26 26 27 27 28 31 33 34 36 33 34 32 25 21 18 18 18 17 22 28 32 32 32 36 40 43 45 47 50 49 50 54 53 55 52 52 48 47 47 43 42 41 39 39 38
29 30 29 28 29 29 32 35 37 34 36 33 25 21 18 16 21 24 26 25 24 26 31 34 38 41 43 48 53 56 56 54 55 57 55 55 51 49 48 46 44 42 41 37 37
30 31 31 28 28 30 30 32 35 35 35 33 26 20 18 18 19 21 23 24 25 29 31 34 36 37 40 40 46 51 60 57 56 58 56 55 54 53 48 48 45 44 41 40 37
28 30 31 30 28 29 30 30 30 31 31 33 26 20 19 21 19 21 24 23 25 26 35 37 39 39 41 44 42 45 52 61 59 56 56 55 55 54 49 48 46 44 41 40 36
31 30 31 31 30 28 29 28 31 32 30 30 26 24 22 21 23 27 24 25 28 32 39 36 32 38 39 38 37 42 44 52 56 56 57 54 55 54 51 47 46 43 42 38 39
31 31 31 31 30 28 27 26 29 30 28 30 26 24 23 22 22 24 22 24 25 30 35 35 30 33 32 29 31 32 37 45 49 46 51 52 54 53 51 48 46 44 42 42 39
30 30 30 31 30 29 27 26 27 30 29 28 29 25 26 21 22 24 25 29 26 32 29 28 25 23 20 19 21 21 22 28 36 32 39 49 49 50 50 46 44 43 41 39 38
30 31 30 30 30 29 26 26 25 29 29 28 29 26 27 26 27 26 29 23 28 37 33 22 18 13 11 9 10 8 20 25 27 32 27 33 45 32 46 43 42 41 39 37 36
31 32 31 31 29 29 26 26 24 27 26 27 28 27 26 27 31 26 27 28 27 30 30 19 15 12 10 5 3 16 25 22 26 25 36 32 35 33 37 37 36 35 34 35 34
31 33 32 30 30 28 27 25 23 23 26 25 26 28 27 27 29 31 29 31 28 30 31 17 13 11 9 5 9 18 24 20 28 18 27 30 28 30 32 31 30 31 30 31 32
33 34 33 30 28 28 27 24 24 22 23 24 23 26 25 26 26 29 31 31 28 28 31 24 12 12 9 6 10 14 20 19 7 16 17 23 25 15 18 24 25 26 27 28 29
41 38 35 29 27 25 26 24 23 22 21 21 22 22 23 24 26 27 31 29 30 27 29 20 14 9 8 3 6 13 19 17 7 15 13 16 12 14 17 19 22 24 25 27 27
43 39 34 30 25 25 24 25 22 21 20 21 21 20 21 21 23 25 27 28 28 29 28 24 20 8 4 3 4 11 15 10 14 14 9 8 11 15 15 20 21 23 25 25 25
42 37 35 32 28 25 23 24 24 21 20 19 20 19 20 21 20 21 23 23 24 29 29 28 25 16 5 3 3 4 4 4 6 10 11 11 13 16 17 19 20 21 22 23 24
36 36 35 32 30 26 23 23 24 24 20 16 17 18 18 21 21 19 22 23 23 24 26 27 23 24 9 4 3 3 3 2 4 5 7 10 10 17 18 19 20 20 22 22 22
39 33 34 32 30 27 23 23 22 22 22 19 16 17 18 19 20 19 18 20 21 21 23 24 25 17 20 2 2 3 6 6 4 2 3 8 10 13 20 22 21 20 20 20 20
42 39 34 32 30 26 24 23 23 21 22 21 16 15 16 18 20 20 16 17 19 20 18 19 19 18 13 14 12 8 7 6 7 6 3 4 8 11 16 20 18 16 17 19 21
42 40 39 35 32 26 24 23 24 23 21 23 18 14 14 15 16 17 18 17 17 17 18 16 14 13 14 8 9 12 9 4 9 8 7 7 11 10 11 13 15 16 17 19 21
42 44 43 35 34 31 25 23 23 26 23 22 21 16 14 13 14 14 15 17 15 14 15 14 12 10 5 5 7 7 6 4 3 2 4 7 7 7 10 12 13 14 16 18 20
39 42 44 42 36 34 28 24 23 24 25 23 22 17 18 16 14 15 13 14 16 12 11 12 10 8 5 2 2 3 3 0 1 2 4 5 6 7 9 11 13 15 17 19 21

GFSSW_500_spd_093.txt.gz
Wind_Speed
17 18 19 19 19 20 21 23 25 27 29 30 32 34 34 35 36 36 38 40 38 38 40 41 40 42 41 40 40 39 40 36 33 35 31 30 36 32 34 34 28 27 27 26 23
13 15 16 17 20 22 23 25 27 28 29 30 32 33 34 33 33 33 32 34 37 37 38 39 40 41 41 43 41 42 43 38 37 38 35 33 36 37 35 35 32 28 26 27 25
12 14 17 18 19 21 22 25 28 31 34 38 40 38 34 32 30 31 31 31 30 32 34 36 38 39 41 42 42 43 39 40 41 42 39 35 40 37 36 38 32 31 31 28 27
14 16 17 19 22 24 26 29 32 35 38 39 39 36 33 32 29 27 27 29 29 30 32 33 35 37 39 40 42 45 45 46 43 44 41 39 40 40 41 39 36 38 36 32 32
20 22 23 23 25 27 29 32 34 35 38 39 37 37 32 27 26 23 22 24 27 28 29 32 34 36 37 38 39 42 45 47 48 47 43 42 44 43 42 41 39 36 37 33 33
20 22 23 25 26 27 29 31 34 36 38 36 35 29 27 25 21 19 20 20 23 26 27 29 31 35 38 39 40 41 46 46 48 51 49 46 47 48 42 45 44 38 36 36 34
23 24 25 25 25 27 29 30 33 35 34 34 34 29 23 20 18 18 18 17 18 20 23 27 30 32 33 36 40 43 46 48 49 51 51 50 51 46 46 48 47 42 39 40 36
24 26 27 28 27 27 28 30 31 33 33 33 34 27 20 17 15 17 19 22 25 29 32 33 33 35 37 41 44 47 50 52 49 51 51 50 52 47 49 49 48 45 43 42 41
25 26 28 30 29 27 27 29 30 32 33 33 33 27 20 17 18 21 21 22 23 24 24 28 33 34 35 39 46 48 52 52 52 53 53 54 53 49 51 50 49 48 45 44 42
28 27 28 28 30 29 28 28 30 30 33 30 31 27 21 19 21 21 20 23 25 26 26 27 29 35 40 45 44 45 50 55 58 53 58 57 56 50 51 55 51 49 46 45 44
29 29 27 27 29 29 28 26 26 26 28 29 30 29 25 23 20 21 22 19 20 24 28 32 35 38 43 48 43 46 48 50 50 51 59 62 57 53 50 57 55 49 47 44 43
30 28 27 27 27 29 28 26 28 27 27 26 27 28 26 26 22 23 22 23 27 29 31 35 38 36 41 40 39 42 45 47 47 48 52 59 63 53 51 55 54 48 48 45 42
29 25 26 28 27 28 28 26 25 26 25 24 26 28 26 23 22 25 25 26 26 28 32 36 38 32 31 32 37 39 40 40 41 41 42 39 54 54 50 55 53 52 48 46 45
27 24 25 27 27 27 27 26 25 27 24 23 25 27 25 25 25 29 26 26 29 30 32 34 32 22 24 27 30 32 25 32 36 39 38 36 40 41 40 53 53 51 47 46 44
27 29 29 26 25 26 25 25 24 25 24 24 23 26 26 26 26 28 26 25 28 28 33 33 19 21 22 21 20 16 18 23 24 27 26 26 33 32 37 46 50 47 45 44 42
27 31 34 32 28 24 23 23 23 22 23 24 23 22 25 25 26 28 28 26 27 29 32 29 21 21 19 16 16 10 7 12 13 24 33 19 32 24 30 36 43 41 41 42 40
31 34 34 30 27 23 22 23 20 20 21 22 23 21 23 25 25 28 30 31 29 29 28 32 26 20 16 12 11 1 17 11 8 16 18 12 26 20 37 28 32 37 41 37 37
32 37 37 31 28 25 22 21 20 19 20 20 20 22 21 23 23 25 26 28 29 31 34 33 31 18 13 12 8 4 8 5 3 16 19 19 16 12 21 18 25 27 32 32 32
31 37 38 31 30 27 23 22 21 18 19 17 19 18 20 22 24 23 25 28 28 30 34 34 34 16 15 12 9 4 9 7 8 10 12 27 11 14 15 16 25 24 26 28 30
31 35 40 34 32 28 25 22 22 19 17 19 17 14 17 19 21 22 23 23 26 28 30 31 29 19 16 14 15 17 12 5 11 10 24 13 18 16 14 17 21 25 26 28 29
31 33 37 36 32 30 27 23 21 20 19 16 16 15 16 16 20 21 20 20 22 24 26 27 24 24 16 13 11 15 13 14 14 17 21 11 13 10 14 16 16 19 23 23 23
32 33 34 36 33 30 30 24 22 20 19 16 15 16 16 14 16 19 20 19 20 23 23 24 21 19 18 13 12 11 12 12 8 15 6 13 13 14 15 17 19 19 19 20 20
33 33 34 35 34 35 31 27 24 20 20 19 14 16 16 15 13 16 17 18 18 19 21 21 21 20 20 11 19 9 6 7 10 12 7 7 9 16 17 17 17 17 17 18 18
34 34 34 35 34 33 30 31 27 21 19 20 16 15 16 15 14 14 17 17 17 16 18 17 16 16 14 10 12 5 1 3 2 3 4 5 8 12 13 15 16 16 16 17 18
36 35 36 39 38 36 32 31 29 24 21 19 19 15 15 15 15 15 16 17 17 15 13 14 14 12 11 9 8 8 4 3 3 4 4 7 6 6 7 11 15 16 16 17 18
40 38 42 43 36 37 36 27 28 29 25 23 20 17 14 14 14 12 14 14 16 16 12 12 11 11 9 8 6 7 5 4 4 3 2 2 1 4 6 9 11 13 14 15 17
39 40 46 40 29 33 38 31 28 28 28 26 24 19 17 15 14 12 12 13 12 13 13 11 9 9 8 7 7 6 4 4 3 1 2 3 4 6 7 9 11 12 14 15 17

GFSSW_500_spd_096.txt.gz
Wind_Speed
12 13 14 16 17 19 20 21 21 22 25 27 29 33 34 35 36 36 37 36 35 38 41 40 38 39 40 41 41 42 41 36 32 34 29 29 34 41 36 30 28 26 33 24 22
11 11 13 15 17 19 21 23 25 27 30 32 35 36 39 39 36 33 33 34 33 33 36 37 36 38 39 42 44 46 44 38 38 37 35 35 39 40 35 36 28 32 30 28 27
11 15 17 19 21 23 25 27 29 30 32 35 38 40 44 42 37 30 28 27 28 29 30 32 32 33 36 41 43 44 43 42 42 42 41 40 36 37 40 26 37 34 34 31 28
18 20 20 21 23 25 27 29 30 32 34 36 39 40 42 33 30 24 23 22 22 25 26 28 31 32 33 36 39 42 43 45 47 44 44 44 39 40 48 31 31 36 33 35 31
17 19 21 23 24 25 26 28 29 31 33 35 36 38 33 28 25 22 20 19 18 20 23 25 28 30 32 34 36 38 40 43 45 47 46 46 41 44 45 41 37 37 35 30 33
19 21 23 24 26 27 28 27 28 30 32 34 34 36 30 24 21 18 16 16 16 18 20 23 26 28 30 33 35 37 40 41 44 46 46 50 49 46 42 45 43 41 40 37 33
19 20 22 23 25 26 28 29 28 29 31 33 31 33 28 22 19 16 18 20 20 20 20 21 22 24 27 30 33 37 41 42 42 43 44 47 51 45 44 48 48 45 41 41 37
22 23 24 24 23 24 26 28 28 29 31 31 31 31 28 23 21 20 22 23 22 22 23 24 25 26 28 31 34 38 41 42 41 44 44 48 51 44 49 51 49 51 45 44 42
25 25 26 24 23 24 26 27 28 27 28 31 31 30 29 23 21 21 22 22 23 21 19 20 22 24 25 28 28 32 36 40 44 45 48 52 51 47 46 51 50 52 49 42 45
26 26 26 23 23 24 26 26 27 25 27 29 30 31 32 28 23 22 22 24 24 17 19 21 23 27 31 36 40 44 45 43 42 43 50 54 56 50 46 50 50 52 52 44 47
28 26 24 23 24 25 24 24 25 25 25 27 29 28 29 29 26 24 25 26 26 27 28 29 29 32 36 40 41 44 47 47 45 46 51 48 57 56 49 48 49 52 53 49 47
23 24 24 25 26 25 25 23 22 20 22 22 24 26 27 28 26 25 26 27 26 26 27 25 29 35 37 34 32 34 40 41 44 45 49 50 50 51 55 47 49 51 53 45 48
21 23 25 26 28 28 26 24 22 20 20 18 22 24 25 27 27 24 26 28 29 30 30 31 33 28 25 26 28 31 35 37 40 41 47 50 51 48 50 52 50 50 50 54 46
20 24 28 29 30 29 25 23 21 21 18 17 19 21 22 25 25 25 26 29 29 30 27 28 31 29 26 28 28 29 30 31 30 31 40 37 42 43 41 45 49 50 51 51 45
20 25 27 29 25 25 23 20 21 20 23 21 20 20 21 23 25 27 21 23 24 29 37 36 33 24 26 26 23 22 23 27 20 31 25 29 37 36 36 34 47 41 48 47 46
20 26 30 31 25 25 23 20 20 20 18 17 19 19 21 24 26 26 30 29 31 27 30 34 33 22 23 24 25 22 14 15 12 15 25 22 33 27 25 17 27 35 39 43 44
22 25 29 35 29 26 24 22 19 19 19 21 18 18 19 21 24 27 25 28 31 33 32 35 29 23 20 22 24 20 18 16 22 11 4 24 25 14 34 25 25 33 31 33 39
21 23 29 31 33 29 27 24 20 18 18 20 17 18 17 17 21 23 24 24 26 29 29 31 30 25 23 24 29 26 26 26 24 8 4 6 9 31 27 38 33 25 24 33 33
25 25 28 28 31 30 29 29 23 21 17 18 18 17 18 21 22 23 25 23 25 28 30 29 28 22 23 23 27 29 22 22 16 13 3 12 16 18 19 27 20 27 25 18 30
26 26 26 28 29 30 30 29 27 21 19 18 18 16 16 15 18 20 23 21 21 23 25 27 25 30 20 22 24 27 25 27 25 19 19 13 13 15 11 9 19 21 23 22 24
28 26 28 30 28 30 28 30 28 25 22 18 17 16 17 14 16 18 20 21 20 20 22 24 25 23 20 24 22 21 23 24 25 18 11 15 12 12 7 9 10 18 20 21 22
30 28 28 30 32 30 31 29 29 28 23 19 17 17 17 16 13 17 18 18 21 19 20 20 20 22 20 18 23 15 16 17 13 16 11 9 11 13 8 10 9 11 12 13 13
30 30 30 31 35 36 33 33 25 27 24 21 18 17 17 17 15 15 16 16 18 18 16 17 17 18 19 21 24 18 12 11 11 16 7 8 7 8 12 9 8 8 8 11 9
33 31 28 33 34 38 37 31 29 22 24 22 19 17 16 17 18 15 16 16 16 17 16 16 15 17 16 15 16 17 11 9 7 7 8 4 4 10 8 12 11 10 9 10 11
34 33 33 34 38 38 31 28 34 30 24 23 20 19 17 15 16 17 16 15 16 16 16 13 14 12 13 12 11 13 12 8 7 7 5 3 4 2 3 10 10 11 11 10 12
36 34 35 36 34 44 38 32 35 37 33 26 23 21 17 17 13 13 16 16 15 15 16 15 13 11 10 9 9 7 9 8 7 6 4 3 3 2 4 5 6 8 10 12 14
41 37 38 36 37 39 40 40 35 35 32 30 28 22 19 15 15 14 13 15 13 14 15 16 13 12 10 8 8 6 6 6 6 7 6 6 4 4 6 7 8 10 11 13 14

GFSSW_500_spd_099.txt.gz
Wind_Speed
8 9 11 13 15 16 17 20 21 23 24 27 28 31 34 35 38 42 37 32 33 34 34 36 36 39 40 40 40 42 43 38 34 33 26 25 33 40 42 38 48 28 25 22 24
10 13 15 17 18 19 21 23 24 26 28 30 31 33 34 37 40 42 34 33 29 29 29 31 33 34 37 39 40 41 41 38 37 38 35 32 38 42 47 42 21 28 22 24 25
14 15 16 18 20 21 23 25 26 28 29 31 32 33 34 38 39 32 28 26 24 23 24 26 28 30 31 35 37 39 39 42 42 43 41 38 38 43 44 46 42 35 35 37 23
13 15 17 19 20 22 24 26 27 29 30 31 32 34 35 37 33 26 23 21 20 20 22 22 25 28 29 30 32 35 38 41 43 45 48 46 42 43 44 45 42 33 31 33 31
14 16 19 21 22 23 25 26 27 28 30 30 32 34 35 34 27 22 18 16 16 16 17 19 22 24 27 30 31 32 33 37 40 43 44 47 50 46 43 45 43 38 51 25 26
17 19 22 23 24 24 24 25 27 28 29 29 30 32 33 33 28 20 18 19 20 21 19 17 19 22 24 26 29 31 33 35 36 39 42 44 46 49 44 49 46 41 34 32 30
20 20 22 24 24 24 24 25 26 27 27 27 28 30 31 31 28 21 19 22 23 21 21 20 21 23 25 25 25 27 29 34 36 38 40 42 45 43 47 47 47 43 44 43 35
21 23 26 27 24 23 24 25 26 26 26 25 24 27 29 29 26 21 20 20 22 25 24 19 17 20 21 22 24 27 29 32 34 39 40 47 43 40 43 45 47 46 43 44 38
23 24 23 22 21 22 23 24 25 25 24 24 25 26 26 27 26 21 19 21 22 22 20 19 23 24 24 25 27 31 31 32 34 39 45 48 47 45 44 45 46 49 45 45 44
22 21 20 19 21 24 25 26 26 23 22 22 24 26 26 28 29 26 25 24 24 25 25 22 23 21 24 29 34 37 40 41 41 41 46 45 50 48 47 47 47 43 48 49 47
20 18 19 21 24 28 28 26 27 26 21 22 22 24 26 26 28 28 24 22 22 23 25 26 28 30 31 32 33 35 36 37 38 41 46 48 48 48 47 48 47 46 48 50 49
21 19 21 26 28 28 28 25 21 18 20 18 20 21 24 24 26 27 28 24 26 27 26 26 29 32 31 30 30 31 32 33 31 34 42 44 48 45 44 44 47 46 45 47 45
21 18 22 27 27 26 26 24 20 16 15 17 18 21 21 23 26 25 25 27 29 26 22 28 31 28 23 24 24 22 28 29 33 34 37 39 45 46 42 43 42 46 44 47 47
22 17 22 24 26 25 26 25 22 17 14 13 16 17 19 20 20 25 23 21 23 26 29 34 33 23 20 21 21 22 25 25 24 28 27 29 39 39 38 40 41 39 46 47 44
20 18 23 25 26 23 24 25 24 21 19 14 17 19 23 20 22 25 26 24 24 27 31 31 28 19 23 26 29 29 27 27 28 21 21 17 30 29 35 36 38 37 45 46 45
18 17 23 25 27 27 24 26 26 23 18 16 18 18 20 23 23 25 29 27 27 26 27 27 29 23 24 26 32 31 30 31 31 25 11 9 18 19 28 28 32 34 43 46 43
20 17 21 24 24 26 24 24 27 23 24 20 18 20 20 20 23 23 25 27 26 27 29 28 28 22 20 22 32 31 37 40 33 15 11 1 8 14 24 30 30 27 36 43 36
21 19 19 23 24 26 28 28 27 26 23 23 21 20 20 18 19 20 21 25 24 26 26 31 32 22 23 30 34 35 41 44 25 27 19 11 13 16 26 22 25 26 35 37 35
21 21 21 23 24 26 28 27 28 27 23 21 21 19 21 22 23 20 20 24 25 25 27 28 27 25 24 26 29 28 36 37 23 20 26 28 28 15 17 18 17 26 35 37 28
22 21 22 23 24 27 29 29 29 27 27 24 18 17 17 16 18 18 17 19 22 23 25 26 23 23 23 28 22 27 19 33 20 14 19 24 23 24 20 13 16 17 24 25 27
26 24 23 25 25 27 29 30 31 28 25 25 22 15 17 16 16 17 17 17 17 19 21 21 24 25 24 23 24 18 21 27 25 17 12 16 20 18 18 11 8 12 8 10 15
28 26 25 27 28 28 28 30 34 27 22 23 26 20 17 17 14 16 15 16 17 18 18 20 20 23 25 23 24 19 18 17 20 21 14 13 13 13 13 11 9 3 2 2 8
30 27 26 27 28 31 33 32 30 23 25 25 24 22 20 19 15 15 16 13 14 16 16 17 17 16 17 18 20 18 14 16 14 18 15 13 13 6 8 9 6 4 1 2 5
31 27 25 30 33 31 33 36 33 27 27 28 27 25 22 19 19 13 14 15 14 14 14 16 17 18 18 18 20 18 17 12 12 12 12 12 14 4 4 1 1 2 4 7 5
32 29 26 29 31 33 36 37 37 35 28 27 25 24 24 23 19 17 14 13 16 13 13 13 15 15 15 15 14 12 13 13 13 12 11 8 7 5 4 3 4 4 5 8 10
41 36 33 34 31 30 37 37 39 36 34 31 26 23 25 24 19 17 16 15 13 16 13 14 13 12 12 11 10 10 8 10 11 11 9 9 7 5 5 4 3 4 4 5 7
42 38 39 37 33 34 34 39 40 35 32 28 25 25 24 22 18 15 16 17 14 16 15 14 13 13 11 10 9 6 6 6 7 7 8 7 6 7 5 3 4 5 6 7 9

GFSSW_500_spd_102.txt.gz
Wind_Speed
4 7 9 10 12 13 15 17 19 21 23 24 26 29 30 32 34 34 37 37 33 30 31 29 40 37 37 40 43 43 44 41 37 36 32 31 38 42 43 45 44 40 37 34 37
8 9 10 12 14 16 18 19 20 21 23 25 28 30 32 34 34 36 35 34 30 27 27 27 31 31 32 34 38 42 42 41 38 39 38 32 39 43 45 45 43 40 34 32 43
8 10 12 14 16 18 19 21 23 24 25 26 28 30 32 33 34 34 32 28 23 21 24 23 24 26 29 29 32 35 37 42 41 41 41 39 39 43 46 45 41 44 35 26 27
9 12 15 17 19 20 21 21 23 24 25 26 27 29 32 30 32 33 29 21 17 17 19 20 19 22 25 28 30 30 32 37 39 41 42 42 39 44 45 45 43 41 36 46 30
12 15 18 20 22 23 23 23 24 25 26 26 27 27 28 31 32 31 27 20 21 20 22 20 18 18 20 24 28 30 32 35 37 38 40 41 41 41 43 47 48 44 39 35 33
14 16 19 23 24 23 22 23 24 25 25 25 26 27 28 30 31 31 27 20 19 21 20 21 20 18 19 21 24 27 30 34 35 34 34 38 39 41 48 47 47 43 42 39 37
15 19 21 22 20 19 20 21 23 25 25 24 25 24 26 28 30 29 24 21 19 20 22 23 21 17 18 20 22 26 27 31 34 37 38 41 38 40 42 47 49 49 41 42 35
18 19 20 19 18 19 22 22 23 24 24 22 21 22 24 26 28 28 26 19 20 21 22 23 20 20 23 24 24 24 26 29 32 35 38 39 39 39 41 44 47 48 50 44 40
20 20 17 16 17 21 25 24 24 24 23 20 19 20 22 25 27 28 28 27 26 23 22 24 23 23 25 25 25 28 28 27 29 35 38 39 42 39 44 46 47 46 46 51 43
19 18 15 17 20 22 24 26 25 22 20 19 18 19 22 26 27 28 30 27 22 21 22 19 19 20 21 21 24 27 30 33 37 40 44 41 43 42 40 45 45 46 47 46 47
18 19 16 19 22 21 20 24 24 21 20 20 19 20 23 23 27 27 27 26 24 25 27 26 30 33 30 25 23 20 21 24 31 35 41 46 49 48 44 43 43 45 46 48 44
19 21 17 19 22 22 21 22 22 22 20 19 19 18 20 23 25 25 29 27 27 26 26 25 27 21 15 10 15 17 17 21 20 29 37 40 42 48 48 47 44 41 44 44 42
19 20 17 21 22 23 21 20 21 21 19 21 19 19 19 20 23 25 26 26 25 24 24 24 20 17 18 17 16 19 20 18 18 24 28 32 38 45 45 47 46 43 43 45 42
18 19 17 20 22 22 22 21 21 22 18 16 16 17 18 18 20 20 21 24 24 26 27 23 22 21 19 22 19 19 21 23 23 24 17 30 38 35 44 44 45 44 41 46 45
17 17 17 18 20 21 22 23 22 22 18 19 17 17 18 17 16 20 21 23 21 26 28 26 25 17 20 20 26 25 19 18 17 22 19 22 31 18 35 41 44 43 38 43 47
16 16 16 16 19 21 24 25 25 24 22 17 19 17 17 20 22 24 23 24 23 21 25 27 26 21 25 25 24 29 29 25 27 26 19 22 17 12 28 35 38 40 37 39 45
18 17 15 16 18 20 23 26 27 26 25 24 19 19 15 14 17 19 18 21 25 22 24 25 25 25 26 18 19 27 32 27 32 37 29 19 13 3 18 25 27 28 34 37 42
19 19 17 16 17 20 22 25 28 27 26 27 25 20 16 14 16 17 17 20 22 21 22 26 30 28 26 25 20 26 33 28 28 30 28 26 15 5 11 18 24 26 32 38 41
22 21 19 17 17 20 23 25 27 29 31 25 27 23 20 20 18 18 16 18 21 23 24 24 25 27 27 25 19 22 27 27 24 29 30 29 14 8 3 7 17 23 32 36 36
24 24 23 20 18 20 25 26 27 32 34 27 23 22 20 18 18 18 16 18 19 22 23 22 23 24 23 22 16 18 21 23 25 26 27 23 16 23 21 7 4 23 30 28 29
27 26 26 23 19 21 25 27 27 30 31 27 27 25 24 20 19 17 15 15 17 18 21 21 21 22 23 20 20 19 19 24 22 23 23 21 22 21 27 28 22 14 18 29 24
30 29 28 26 23 21 23 27 28 28 31 29 31 28 26 23 19 19 17 13 16 16 16 19 17 20 22 22 23 24 17 18 21 19 19 19 17 20 21 23 23 22 18 7 25
32 32 28 28 25 22 25 29 30 28 32 31 31 26 27 25 23 20 19 15 14 14 16 19 16 13 16 20 22 15 13 16 18 18 19 18 15 16 16 18 19 17 17 13 11
34 33 29 29 26 24 27 29 29 30 32 31 30 29 24 26 26 20 19 18 15 12 13 17 18 18 15 15 15 16 15 15 15 13 14 15 13 13 13 12 12 12 10 11 12
35 31 27 29 28 27 28 29 30 35 36 32 32 25 22 20 23 30 18 17 17 13 11 13 15 17 16 14 14 15 13 12 11 10 11 11 12 11 11 9 8 7 5 4 2
38 35 35 34 32 31 29 31 35 33 34 35 29 23 23 23 22 23 20 16 16 16 14 12 13 14 15 13 13 12 12 10 7 8 9 9 8 8 8 8 7 7 6 4 3
41 41 40 39 38 36 35 35 28 35 33 31 29 24 23 24 24 22 18 19 15 16 16 15 13 14 12 13 11 10 9 10 8 6 6 6 6 5 5 4 3 3 4 4 5

GFSSW_500_spd_105.txt.gz
Wind_Speed
2 4 5 6 7 9 11 12 14 16 17 19 21 23 25 27 30 32 33 34 35 37 35 30 27 27 30 38 41 44 46 47 43 41 38 33 38 43 46 46 45 44 39 38 23
4 4 4 8 10 13 14 15 15 17 19 21 22 24 26 28 30 31 33 34 35 33 26 22 22 25 26 30 33 37 39 42 44 41 41 38 39 43 47 49 46 45 39 40 30
4 6 9 12 15 16 18 19 19 20 21 23 24 26 27 29 31 32 34 34 35 26 19 18 20 22 24 26 29 31 33 36 41 42 42 41 40 43 48 48 47 43 42 39 39
7 9 12 15 17 18 18 19 19 21 23 25 25 26 28 29 30 31 33 33 32 24 23 22 23 21 20 24 26 27 30 34 35 36 39 41 39 43 46 46 47 43 41 40 36
9 12 15 17 18 18 17 17 19 21 24 25 25 25 26 27 28 31 33 34 30 21 20 22 20 22 22 22 22 24 27 32 36 33 34 37 36 38 43 48 48 47 44 41 35
9 12 16 18 17 16 17 19 19 21 22 27 25 24 24 26 28 31 33 33 26 19 18 19 19 22 23 20 20 22 23 27 33 37 36 35 37 40 46 48 49 49 46 42 38
12 15 15 15 14 16 18 20 21 23 24 25 23 23 23 25 27 30 31 32 27 20 20 21 22 24 22 21 22 23 21 25 29 31 34 35 35 34 38 49 49 46 45 43 40
15 17 15 13 13 17 19 20 22 24 23 22 22 21 23 24 26 29 31 32 28 28 25 23 23 22 20 21 23 25 26 26 27 30 31 30 32 34 37 39 47 53 55 52 43
16 17 16 13 15 19 18 19 23 23 22 21 21 20 22 23 25 29 31 33 29 25 23 24 24 25 26 26 25 24 23 24 28 30 32 35 34 33 35 38 40 45 49 50 52
15 17 16 14 15 19 19 20 23 22 22 19 18 18 21 23 24 27 31 31 28 27 26 25 25 22 20 12 9 13 20 24 27 31 35 38 39 36 36 37 39 43 44 44 47
14 16 17 14 18 19 20 18 18 21 21 18 18 18 19 21 22 25 27 29 29 26 25 24 17 14 14 15 16 20 14 13 15 21 26 34 42 45 44 41 40 42 45 43 40
15 17 19 16 16 18 21 20 19 21 23 20 19 18 19 21 22 23 26 28 28 25 23 22 17 14 18 19 18 11 9 16 18 25 26 28 30 40 46 47 46 44 46 46 42
15 16 17 17 17 18 18 18 20 21 22 20 19 17 17 19 21 20 23 25 26 24 23 21 21 15 16 14 17 24 23 19 23 24 25 30 33 33 36 46 47 52 47 47 46
17 16 17 16 17 16 16 18 19 20 21 24 19 17 15 16 19 19 23 24 27 25 25 25 28 19 18 19 20 22 21 22 27 29 22 24 30 25 37 42 49 49 50 47 46
18 17 16 17 15 15 16 18 20 22 22 23 23 22 16 17 17 16 19 21 25 28 24 25 23 20 21 15 18 27 21 23 32 33 30 18 22 27 29 31 41 45 50 49 44
19 17 16 17 16 16 16 18 20 22 24 23 23 22 21 18 19 17 19 20 22 26 28 24 22 22 24 26 22 26 22 23 29 35 33 20 22 15 10 13 27 40 44 44 43
21 18 17 17 17 17 18 18 20 22 24 26 25 24 23 19 20 19 20 20 20 18 24 25 23 24 20 16 20 21 22 26 32 38 31 23 23 14 7 4 17 31 38 38 37
23 21 20 18 18 17 19 20 22 24 29 29 28 25 23 23 18 19 20 22 23 22 22 27 30 28 27 25 23 24 27 27 28 31 31 34 20 14 10 4 16 26 36 33 31
26 24 22 20 19 20 19 20 23 23 27 29 27 26 27 28 25 19 18 20 23 20 21 23 25 28 26 24 23 22 23 22 21 25 30 35 32 24 8 8 14 24 33 35 33
29 27 25 23 22 21 20 21 22 24 26 29 30 29 24 24 25 24 19 19 22 23 22 20 23 24 23 21 21 19 20 19 20 24 25 27 28 29 36 9 13 17 26 34 32
32 31 29 27 24 23 21 21 22 26 27 28 32 33 29 27 24 22 20 18 20 22 23 20 22 26 24 22 20 18 22 23 20 24 21 24 28 27 26 30 9 6 20 25 25
36 34 31 30 28 25 22 23 24 25 27 26 29 30 31 29 25 22 22 21 17 18 20 19 18 22 22 22 23 23 24 21 18 19 22 19 23 24 28 22 24 19 20 21 22
39 37 34 32 30 28 24 23 22 26 27 26 28 28 33 30 26 24 23 20 18 17 18 19 15 16 22 21 19 18 16 19 19 19 19 20 17 19 22 21 23 23 15 14 31
44 42 36 34 31 30 27 23 22 27 28 28 29 28 31 29 27 26 26 26 18 16 16 18 19 17 17 17 17 14 14 16 17 16 16 16 18 17 16 15 15 17 19 15 15
48 44 39 36 31 31 28 24 24 25 30 31 29 29 26 27 25 26 26 25 18 14 15 15 18 18 16 16 17 15 13 12 14 14 13 14 14 14 13 13 13 12 10 9 8
52 47 40 39 36 31 27 24 26 28 33 33 31 24 24 26 27 26 27 24 19 14 13 13 15 17 17 16 16 15 13 11 10 11 10 11 11 10 10 9 8 8 7 6 4
51 50 45 43 40 37 30 33 33 34 33 32 31 28 28 26 27 26 25 23 20 17 18 15 15 16 18 16 15 15 15 14 11 9 9 7 9 9 8 7 7 5 4 2 1

GFSSW_500_spd_108.txt.gz
Wind_Speed
4 6 6 6 6 9 10 11 12 13 16 17 19 21 23 25 26 28 30 31 32 33 34 38 32 29 27 28 29 33 37 39 43 45 43 41 39 42 48 47 47 45 43 35 33
6 6 4 6 9 11 12 13 13 15 17 18 22 24 25 25 26 29 30 32 33 33 36 32 22 19 21 24 26 28 31 34 37 41 43 44 41 42 48 49 48 49 48 44 33
4 5 7 8 10 13 13 14 14 16 18 21 23 24 24 25 27 28 30 32 34 35 37 26 24 23 22 21 23 25 25 29 33 36 38 39 42 41 48 49 48 49 49 42 41
4 6 8 10 11 13 14 14 15 17 19 20 22 24 22 23 26 28 30 32 33 37 30 22 20 20 20 22 23 24 24 26 29 34 35 35 38 40 43 49 49 48 50 43 38
5 7 9 11 12 13 14 15 16 16 19 21 23 23 22 23 26 28 30 31 34 35 27 22 19 20 21 22 24 25 23 25 27 31 34 32 32 38 40 47 50 49 48 44 40
6 9 11 12 11 12 14 16 18 21 21 22 22 22 21 22 26 27 30 32 34 29 22 19 19 21 24 26 25 23 22 24 26 27 28 30 30 30 34 42 49 51 50 46 42
7 10 13 12 10 12 15 15 18 21 22 21 22 21 20 23 25 27 29 31 34 27 24 23 23 24 25 24 24 24 25 28 28 27 25 26 27 29 32 36 43 50 52 50 46
9 11 12 12 10 13 14 13 18 20 22 23 22 22 20 22 24 26 29 31 33 27 23 24 23 20 24 24 23 22 23 24 24 28 30 26 24 26 32 34 38 44 52 51 46
9 12 13 12 10 14 15 14 17 19 23 23 22 23 21 21 22 25 28 31 32 28 25 25 17 16 18 17 21 21 20 22 25 27 29 31 25 26 30 33 38 40 44 51 52
9 12 15 13 11 14 16 15 16 18 20 21 21 22 22 20 22 24 29 30 31 29 26 26 17 18 24 26 20 19 21 23 23 23 28 29 32 31 31 34 35 39 42 43 49
10 12 14 16 15 15 17 17 17 18 18 19 21 20 21 21 21 23 27 30 32 31 24 25 25 21 18 21 21 26 21 22 24 30 32 31 27 29 37 39 39 41 42 42 42
10 12 14 15 16 17 18 17 16 15 16 18 21 21 24 24 22 22 26 29 30 30 23 23 22 18 18 18 23 25 21 13 11 19 26 24 25 31 35 38 44 45 44 44 43
10 13 14 15 15 15 16 16 17 17 18 19 22 20 25 23 21 22 24 25 27 28 27 24 24 24 24 20 16 23 27 23 24 22 21 22 21 28 37 43 43 47 48 47 46
12 13 14 15 15 15 15 16 17 17 19 23 23 21 25 24 20 20 24 26 27 27 27 28 26 24 23 23 18 22 25 26 28 29 26 24 18 21 24 31 40 40 47 50 47
16 15 13 14 15 14 13 15 17 19 21 23 25 23 23 25 24 20 22 24 27 29 29 28 27 24 25 22 20 21 25 27 27 28 29 25 17 18 20 15 22 36 38 47 48
18 17 15 14 15 14 14 15 16 19 22 24 24 23 23 24 24 20 21 22 24 29 31 30 27 25 22 24 23 21 23 23 25 30 35 32 20 19 17 16 13 20 31 40 44
20 19 18 16 16 15 15 16 17 19 21 23 27 26 26 24 24 23 20 21 21 20 24 27 27 25 23 21 22 24 20 20 28 31 33 29 20 17 17 15 15 8 24 35 39
23 20 21 19 18 17 16 17 20 21 19 23 26 28 29 28 24 23 23 22 23 23 23 27 28 27 27 26 26 25 27 28 30 26 29 30 26 16 15 7 7 6 23 30 37
26 24 23 21 20 19 18 17 20 22 21 22 26 28 32 30 29 27 24 24 24 23 23 24 26 29 27 27 25 24 24 23 25 23 27 34 33 41 10 9 6 9 18 27 34
30 27 26 25 23 22 21 20 19 22 22 22 23 25 31 33 32 27 26 25 23 23 23 23 25 24 25 25 25 23 22 23 26 26 26 28 35 34 32 6 7 8 16 24 27
36 31 28 28 26 25 24 23 21 21 23 21 22 24 28 30 33 27 25 23 24 23 22 22 23 26 25 24 22 23 23 26 24 23 24 24 29 31 31 28 8 9 15 20 23
41 36 31 31 29 28 27 26 23 22 23 21 22 23 26 28 32 30 24 24 25 24 18 20 21 21 23 24 24 22 23 23 23 22 23 22 22 25 28 30 19 9 12 16 17
46 41 37 34 31 30 30 30 26 24 24 22 22 25 27 29 26 27 27 24 26 24 16 17 18 18 21 22 23 23 20 20 21 21 20 21 22 21 22 24 23 18 8 11 13
51 47 41 38 33 32 32 31 29 26 25 25 25 26 27 27 26 25 28 26 25 22 16 17 20 19 17 17 18 19 19 17 17 18 18 17 17 17 18 19 18 18 21 8 15
57 52 45 42 35 35 35 31 29 27 26 25 26 27 27 25 24 28 29 27 24 22 17 17 20 20 18 18 17 17 17 16 15 15 16 15 14 14 13 13 14 13 13 12 9
62 56 49 45 39 39 39 31 29 30 27 25 30 29 27 27 25 26 30 27 25 22 18 17 17 19 21 17 16 16 15 15 13 13 13 15 14 12 12 11 10 9 8 7 6
65 59 53 50 46 44 38 34 36 34 30 30 33 30 28 26 28 29 30 29 26 24 20 19 17 18 20 19 16 16 15 14 13 13 13 12 13 12 11 10 9 7 6 5 4

GFSSW_500_spd_111.txt.gz
Wind_Speed
5 6 6 4 4 6 7 9 10 11 13 15 16 19 21 22 22 22 25 28 29 31 33 36 40 37 28 24 24 28 30 28 29 32 35 39 39 43 43 46 46 45 43 39 36
5 5 2 4 5 8 9 10 10 12 13 15 17 20 22 21 20 21 25 28 31 33 37 40 35 26 23 22 22 21 24 26 27 29 31 31 36 41 45 45 47 47 47 41 40
4 3 3 5 7 6 9 10 11 12 13 15 17 20 22 19 18 21 25 28 31 35 38 35 29 23 21 22 22 19 21 24 25 24 27 29 30 35 44 46 48 49 50 48 46
3 3 4 5 5 6 9 10 11 12 13 15 17 18 20 19 19 21 25 27 31 34 35 29 26 22 22 22 22 22 23 26 26 25 25 27 28 29 35 45 49 50 49 49 46
3 3 5 6 5 7 10 10 11 13 15 15 16 18 19 18 19 22 24 28 32 35 28 25 22 21 21 22 24 25 24 23 24 25 25 27 28 28 30 38 45 49 49 48 45
3 4 6 7 7 8 10 9 11 14 14 16 16 17 19 19 21 23 25 28 31 33 24 24 20 17 21 26 26 27 22 20 21 24 26 24 24 27 31 34 39 45 48 49 45
4 5 7 7 6 8 10 9 11 12 16 18 18 18 20 21 21 24 25 27 30 32 22 22 10 15 22 27 29 26 18 21 24 25 26 27 24 23 28 34 36 40 45 49 46
2 5 6 8 6 8 10 10 11 12 15 16 17 19 20 22 23 25 24 25 28 31 24 23 17 18 21 26 28 26 24 19 20 23 27 27 24 25 26 30 35 37 41 45 47
2 4 7 8 7 8 11 12 12 13 14 16 18 20 21 22 22 24 23 24 27 31 31 25 23 22 25 24 24 22 24 24 24 25 23 23 21 24 29 29 33 37 37 40 45
4 4 5 7 9 10 11 13 13 13 15 17 18 20 21 23 22 23 23 24 27 30 31 29 25 26 26 26 22 17 20 23 22 24 23 26 23 21 24 31 33 36 39 39 40
6 4 5 8 10 11 12 14 14 14 14 15 18 20 22 23 22 22 25 25 27 29 29 30 26 22 22 23 21 18 24 16 18 22 23 24 22 24 29 29 36 38 41 42 41
10 7 5 7 10 11 12 12 13 15 15 16 20 21 22 24 23 22 24 24 24 27 29 28 27 23 21 22 20 21 24 23 19 22 23 19 19 22 26 30 34 40 44 44 44
15 11 7 6 8 10 10 10 12 14 17 20 22 23 23 23 23 24 24 23 23 25 28 29 30 32 25 20 19 21 21 25 26 29 27 21 21 20 21 28 32 37 42 47 46
19 15 11 8 8 8 10 10 10 13 18 20 23 23 24 23 23 23 25 25 22 23 26 29 31 32 29 24 19 19 22 24 26 29 30 22 24 17 21 22 23 30 35 44 49
21 18 15 11 10 10 10 11 11 12 17 18 22 23 24 25 24 24 25 27 26 23 26 28 29 29 29 24 23 23 22 25 25 24 25 28 28 24 21 19 17 21 20 37 46
22 19 17 15 12 12 12 12 13 12 14 15 21 23 26 26 25 25 25 25 25 25 24 25 26 27 27 26 25 24 24 21 23 23 30 33 40 27 22 20 12 13 14 25 37
24 22 19 17 15 14 14 13 14 14 13 15 18 21 24 28 28 28 26 24 22 20 22 22 24 25 24 23 24 25 22 23 24 28 30 22 36 32 18 21 22 12 6 22 30
28 25 23 21 18 16 16 15 15 16 16 16 17 20 21 26 27 29 27 24 23 23 20 21 23 26 28 28 29 26 24 24 23 24 25 29 35 25 23 22 19 10 7 22 27
34 30 27 24 23 20 19 18 17 18 18 18 18 20 22 25 27 29 28 25 25 25 23 20 23 25 27 27 27 26 25 23 21 24 26 30 34 34 15 17 16 14 8 15 20
40 36 31 28 26 23 21 20 19 19 19 21 19 19 21 25 28 29 30 27 26 27 26 20 20 22 24 26 26 26 25 23 25 25 25 27 32 40 20 17 16 13 13 12 16
45 41 36 32 30 27 24 23 21 20 19 21 22 20 20 22 26 28 27 26 25 27 25 19 20 20 22 23 23 23 22 24 24 26 27 28 31 32 30 17 16 12 12 10 13
50 46 41 38 35 29 27 25 24 22 21 21 23 20 21 24 27 24 23 25 25 24 24 19 17 19 21 22 22 23 23 22 22 24 24 24 27 28 28 25 14 10 7 8 9
56 50 46 43 38 32 30 28 26 24 23 22 23 22 21 23 25 24 23 25 26 25 22 19 17 18 20 22 22 22 23 21 20 21 22 23 23 23 25 26 22 11 6 5 6
60 56 51 47 41 35 31 31 28 25 25 24 23 23 21 24 25 24 24 23 25 25 23 21 20 19 18 19 19 21 20 20 18 17 18 19 20 21 21 21 21 20 10 8 3
66 62 56 52 44 37 35 34 28 26 27 27 25 25 22 26 27 25 24 27 26 25 23 22 20 19 19 19 18 17 19 18 18 15 15 15 16 16 17 17 17 17 16 10 12
72 67 61 53 47 43 40 36 30 29 30 29 28 27 25 28 29 25 24 26 28 26 24 22 21 17 19 18 18 17 15 16 15 15 14 12 13 13 13 14 14 13 12 10 9
75 69 65 59 52 48 45 38 35 37 33 30 31 27 29 30 31 30 28 27 27 31 25 22 21 17 15 16 16 17 15 14 15 13 13 13 11 10 10 9 10 11 11 9 8

GFSSW_500_spd_114.txt.gz
Wind_Speed
9 7 6 5 6 6 6 6 8 9 9 10 11 14 15 17 17 16 16 20 23 25 29 31 34 33 32 25 22 21 22 24 25 27 29 31 33 37 43 45 43 43 43 42 41
7 6 5 5 7 6 6 6 7 9 9 9 11 14 15 17 15 14 17 20 22 26 30 34 34 30 25 22 20 22 26 24 23 25 27 28 29 32 38 44 44 44 45 45 43
7 6 7 7 7 5 5 6 7 6 7 9 12 14 14 15 14 15 17 21 23 27 31 33 32 27 24 21 21 22 25 25 25 24 24 24 23 26 31 39 45 45 47 48 47
7 8 7 7 6 5 6 6 4 6 8 10 11 12 14 15 14 16 18 20 23 27 31 28 25 19 16 17 16 18 21 27 27 25 26 25 24 23 26 31 39 44 46 48 48
9 8 5 7 6 4 5 6 5 7 7 9 10 11 13 13 15 16 17 19 23 27 29 27 18 15 16 20 23 25 24 21 19 22 22 23 24 25 27 29 33 41 44 46 48
7 6 6 6 4 4 6 5 5 5 8 10 11 11 13 13 15 15 17 19 22 26 28 25 17 18 20 24 25 26 25 19 16 18 20 23 25 25 26 30 32 35 41 44 46
7 5 5 4 2 4 6 5 7 7 8 10 10 12 13 14 15 16 18 20 22 26 27 26 20 20 23 24 24 25 23 23 19 17 19 23 24 24 27 26 32 35 37 42 44
5 3 3 2 1 4 5 6 7 9 9 10 11 12 13 16 17 17 18 20 22 25 28 27 27 23 23 25 22 22 25 27 25 19 17 18 15 23 27 31 29 35 38 39 42
6 4 1 1 0 2 4 6 8 9 9 10 11 13 14 17 18 18 19 20 22 24 28 30 30 30 23 25 24 19 18 26 22 22 20 15 12 20 24 30 32 33 39 38 39
7 5 3 2 1 2 5 6 7 8 8 11 13 15 15 18 19 20 20 21 23 24 26 29 29 30 26 22 22 17 16 19 21 19 22 22 21 22 27 27 29 34 36 40 40
11 8 5 3 2 3 5 5 7 8 10 12 15 16 17 17 18 21 21 21 23 24 25 27 27 27 24 21 19 21 19 17 21 24 24 22 19 20 21 28 29 33 38 40 40
15 12 9 6 3 2 3 5 7 8 11 14 16 17 19 18 17 19 21 21 21 22 24 24 24 25 24 21 19 22 21 20 20 22 26 25 20 24 24 23 28 33 36 41 40
19 16 13 9 6 4 4 4 4 7 11 13 17 18 19 19 18 19 20 21 21 20 21 23 24 25 25 22 22 22 20 21 23 24 24 28 23 29 23 22 23 24 33 38 43
23 20 17 15 11 7 5 5 6 6 9 11 15 17 20 20 20 20 20 18 19 19 20 22 24 25 27 25 20 20 20 20 24 24 28 25 30 27 21 21 21 21 20 32 39
27 25 21 19 17 13 9 8 8 8 9 9 13 17 19 21 22 22 22 22 20 21 20 21 23 25 25 24 21 20 19 19 19 24 25 27 32 27 23 19 18 14 17 25 30
31 29 26 22 19 17 14 11 9 9 10 9 10 15 18 21 24 24 21 22 22 21 22 20 20 22 23 24 23 20 20 20 21 24 29 31 34 28 22 20 18 13 17 23 29
32 30 27 23 21 19 17 15 13 12 11 10 10 13 17 20 23 26 26 23 23 23 24 20 18 19 21 22 22 22 18 20 22 24 25 29 35 30 24 24 20 15 5 9 21
35 32 29 27 24 22 20 19 17 14 14 13 14 12 15 18 21 27 29 24 21 21 21 20 17 18 20 22 24 23 23 22 22 23 26 29 35 24 25 25 23 18 13 11 18
41 37 33 31 28 26 24 22 19 19 16 15 16 14 14 16 20 24 29 26 24 21 21 19 15 17 20 23 23 24 23 22 19 23 25 29 33 24 32 25 21 17 18 16 15
48 44 39 35 32 28 25 24 22 20 19 17 18 17 15 15 18 22 25 24 25 21 21 19 16 17 19 22 23 24 23 22 23 23 26 28 30 31 27 22 18 19 13 14 14
54 51 46 42 39 34 28 25 24 22 21 19 18 19 16 15 17 20 23 22 24 24 22 20 18 17 17 19 21 22 21 22 22 22 24 26 28 30 29 21 19 16 18 14 16
59 57 50 48 45 39 33 30 26 24 23 21 20 19 20 15 16 19 21 23 23 24 23 21 18 18 17 17 17 19 20 21 20 21 20 21 25 26 26 23 15 14 14 18 14
64 60 55 53 50 43 38 35 31 27 25 23 22 21 20 20 14 17 21 23 24 26 22 22 19 17 17 17 16 16 18 19 19 18 18 19 20 22 23 26 16 13 11 8 7
69 66 62 60 55 47 43 39 35 31 28 25 23 22 21 21 19 17 24 22 24 25 24 23 20 18 16 16 18 15 16 17 17 17 16 16 16 17 20 21 24 14 17 9 4
74 72 66 64 60 52 46 44 39 33 31 28 25 25 22 22 19 23 23 24 22 26 24 26 22 19 16 16 15 15 13 14 15 13 13 12 12 13 15 16 16 17 16 14 10
78 78 74 67 63 57 51 49 43 37 34 31 28 29 24 24 23 27 23 26 25 25 29 28 22 19 18 15 13 13 12 11 13 13 11 10 9 9 9 11 12 12 11 11 10
79 77 80 74 67 63 57 50 44 40 40 36 35 31 26 27 24 30 27 28 29 28 28 29 22 17 18 16 14 13 13 10 10 13 11 10 9 7 6 6 7 7 7 8 7

GFSSW_500_spd_120.txt.gz
Wind_Speed
14 12 12 10 9 7 7 8 9 9 11 11 11 11 11 12 13 11 8 7 10 12 12 14 16 20 23 24 22 23 21 21 23 24 25 30 30 31 33 36 34 34 42 53 24
14 13 12 11 8 8 9 10 10 10 12 10 10 10 12 11 11 8 7 8 10 10 12 15 17 21 23 22 21 20 18 22 25 25 28 29 32 30 31 29 28 33 40 52 45
15 12 11 10 8 10 11 9 10 10 8 7 9 11 11 9 9 8 7 8 9 10 13 17 19 23 24 24 22 21 23 26 27 25 24 28 28 27 28 28 28 30 37 42 48
11 11 10 9 10 12 10 9 10 9 7 7 8 10 9 8 8 7 7 8 9 11 15 18 20 23 24 25 25 27 29 28 27 24 24 22 19 22 25 26 28 28 34 38 42
12 11 10 10 11 11 9 10 8 7 7 7 9 10 9 8 7 6 6 8 9 12 14 17 20 23 24 26 27 24 25 25 23 19 24 20 17 20 24 25 29 31 29 34 38
13 11 11 10 11 10 10 8 8 7 8 9 9 9 9 7 6 6 6 7 9 11 13 16 18 22 23 25 26 24 22 20 18 18 22 17 18 20 22 25 28 30 30 32 35
13 12 12 13 10 9 8 6 6 8 9 10 9 9 9 7 6 6 7 7 9 11 13 15 17 20 22 24 24 24 21 20 16 18 18 15 17 17 20 26 30 31 33 33 36
14 13 12 12 8 8 7 6 6 7 8 9 8 7 7 7 6 6 7 8 10 12 13 15 17 21 24 26 20 17 21 23 24 19 20 18 19 21 22 21 26 28 33 36 37
16 15 14 10 7 8 6 6 5 6 6 5 5 6 7 7 7 7 8 9 11 12 13 15 17 20 22 25 28 26 24 21 20 21 20 22 22 22 21 20 18 24 27 34 37
18 17 15 12 8 8 6 6 5 4 4 4 5 6 6 7 7 7 8 11 12 13 14 16 15 19 24 25 22 20 21 20 19 20 20 20 20 19 20 23 22 23 25 34 37
21 20 17 15 11 10 8 7 5 4 3 2 4 5 6 7 7 8 8 12 13 13 14 16 19 21 21 21 21 20 19 20 21 19 22 22 22 23 22 22 22 25 25 30 38
24 22 20 17 14 11 10 9 8 6 4 3 3 4 8 9 9 9 10 12 13 14 14 15 14 17 19 20 20 20 20 21 23 23 22 23 27 31 27 23 24 24 23 23 33
26 25 25 22 18 15 13 11 11 9 7 5 4 4 7 9 10 11 13 13 14 15 15 16 16 16 17 19 19 19 18 18 20 21 21 26 32 32 30 33 29 22 24 22 24
31 30 29 26 22 20 17 15 13 12 13 10 8 7 6 9 10 13 15 16 16 16 16 16 13 13 16 18 18 19 20 19 19 19 22 27 31 28 26 28 32 33 26 21 22
37 35 34 32 28 25 22 19 18 16 16 12 12 10 8 8 10 14 16 16 17 17 16 15 13 12 14 16 17 17 18 17 18 20 22 27 27 24 26 24 24 24 23 24 17
42 40 38 36 33 31 27 26 23 21 20 13 11 12 11 10 10 13 17 17 16 17 17 17 14 12 14 16 16 17 16 17 15 19 24 26 28 27 27 28 25 29 27 17 11
48 44 43 41 37 36 34 31 30 28 22 19 15 13 12 11 11 11 15 17 16 16 16 16 14 13 14 15 15 17 18 18 19 18 18 23 32 29 27 25 28 29 26 13 6
53 49 46 45 42 40 39 37 34 28 28 21 19 16 14 12 10 9 13 15 16 17 19 18 14 13 13 14 15 17 16 18 20 19 15 23 32 31 26 29 29 26 24 14 8
58 56 49 48 47 46 44 43 33 31 32 26 25 21 16 13 11 10 9 13 14 16 19 18 16 15 14 14 15 16 16 18 17 18 20 25 31 33 26 27 27 27 21 19 13
62 61 55 51 52 52 50 44 38 38 32 29 27 23 20 16 13 11 9 10 14 15 16 18 17 16 15 14 14 14 15 14 15 19 20 18 23 28 23 23 26 29 20 18 18
65 66 59 56 56 58 55 44 39 40 34 32 29 26 24 19 17 13 12 11 10 14 15 15 18 19 16 15 14 13 13 14 15 15 16 15 18 24 22 23 20 23 24 18 14
68 69 66 63 63 59 54 46 43 41 37 35 32 29 26 22 20 17 14 15 12 12 15 17 17 20 21 18 16 16 14 14 15 14 14 14 19 18 21 20 20 17 19 15 14
74 72 70 68 69 64 56 51 51 44 39 38 35 32 29 25 22 19 18 17 16 14 14 16 19 19 20 17 16 16 14 13 12 12 11 13 13 15 15 17 20 17 15 13 12
80 80 80 73 73 68 63 57 58 48 44 42 39 35 31 28 25 22 20 19 18 16 14 14 19 19 21 22 17 15 15 13 13 12 11 10 10 11 12 13 14 15 14 11 7
69 75 87 80 74 73 68 66 62 54 50 46 43 38 34 32 29 25 23 23 20 18 16 15 17 19 18 19 19 17 15 14 13 13 10 9 8 9 10 10 10 11 11 13 11
68 57 71 83 77 72 72 67 64 58 53 50 45 37 36 36 32 29 27 24 22 22 19 16 18 17 20 18 20 19 15 15 12 13 13 10 8 8 7 8 8 8 7 8 7
62 57 66 69 83 78 75 70 65 62 58 51 45 41 42 36 36 31 31 29 24 24 22 20 18 19 19 20 20 20 17 14 12 12 13 12 9 8 8 6 6 7 7 5 4

GFSSW_500_spd_123.txt.gz
Wind_Speed
17 14 14 14 11 11 10 9 7 8 8 8 11 10 7 8 9 11 10 10 10 10 10 12 12 14 18 22 24 26 25 24 24 22 23 22 20 25 32 35 33 32 41 41 45
15 13 15 12 10 11 9 10 9 10 10 10 11 8 7 9 12 11 10 8 8 9 10 10 12 15 19 21 24 27 27 26 25 25 26 23 21 22 31 34 32 32 36 39 43
13 13 16 11 11 11 11 10 9 10 9 8 7 7 8 9 10 10 8 8 8 9 9 10 12 15 18 22 24 28 26 28 31 31 29 26 24 25 26 27 28 27 31 34 38
12 12 13 13 11 10 12 11 11 11 7 8 7 7 8 9 10 9 7 8 7 8 8 10 13 16 19 22 24 27 29 25 23 26 24 20 20 19 20 16 22 24 26 34 34
13 10 11 11 10 11 12 11 11 10 7 9 7 7 8 9 8 7 7 7 8 9 10 12 14 17 20 22 24 26 27 24 22 20 17 18 18 12 17 17 22 25 25 30 32
16 12 11 10 11 12 11 11 11 8 7 8 7 7 6 7 7 7 7 8 9 10 12 13 14 16 20 22 23 25 26 23 22 18 17 15 14 12 12 15 21 24 24 29 33
16 14 12 11 11 14 10 10 9 9 9 8 8 8 7 7 7 7 7 8 9 11 13 13 14 16 18 21 24 24 24 21 17 18 17 18 21 20 17 14 16 21 24 28 31
17 15 13 11 13 13 10 10 9 9 8 8 7 7 6 7 8 8 8 9 9 11 12 13 14 15 19 22 21 20 24 25 25 20 18 15 16 18 18 16 17 19 20 26 32
19 16 15 13 12 12 10 11 9 9 8 6 5 5 5 7 8 9 9 9 10 11 13 13 13 13 15 18 23 25 24 24 24 18 17 18 18 17 16 17 18 19 20 22 29
22 20 17 15 14 12 11 11 9 8 6 5 5 4 4 7 8 9 9 10 12 12 13 13 13 14 14 18 20 22 23 21 20 18 21 21 18 20 19 23 21 19 23 24 24
25 23 21 18 16 15 13 13 12 9 8 6 3 1 1 4 5 7 9 9 11 10 11 12 11 11 16 20 20 21 22 20 22 20 18 21 25 23 24 21 16 20 22 25 27
28 26 24 22 19 17 16 15 14 11 10 8 5 3 1 2 4 5 7 7 7 8 9 9 12 12 15 18 19 19 21 20 22 22 18 22 27 31 29 26 21 16 18 20 24
33 30 29 25 23 20 19 17 16 15 13 11 8 5 3 3 3 6 7 7 7 8 9 9 10 10 14 16 19 19 19 19 19 22 22 24 27 25 24 23 24 22 22 21 20
39 36 33 30 28 25 24 22 19 17 16 15 12 11 7 6 5 6 9 9 9 8 9 9 12 11 12 14 16 20 20 21 21 20 21 24 30 23 24 24 26 25 25 28 24
43 43 39 36 32 30 29 27 24 21 19 17 15 14 11 9 7 7 11 11 8 9 9 9 10 10 10 13 14 17 19 21 21 19 19 23 27 23 27 27 28 27 30 21 13
46 47 45 40 37 35 35 33 30 27 24 16 16 16 14 12 10 8 9 11 9 9 9 8 9 9 10 12 13 15 17 19 19 19 18 22 26 25 28 30 29 30 27 20 4
52 51 50 46 41 43 41 40 38 35 26 23 20 18 17 14 12 9 7 10 9 8 12 12 9 10 11 11 14 14 16 18 19 21 17 21 24 27 25 29 35 28 26 16 12
57 56 54 50 46 46 46 46 46 35 32 28 24 22 19 17 14 11 9 8 10 9 11 12 11 12 13 14 16 16 15 17 19 20 18 19 25 29 28 31 33 29 25 14 10
61 60 58 54 52 51 51 54 46 36 39 32 31 28 24 20 18 14 11 7 8 10 11 12 13 13 13 14 16 17 16 16 18 19 20 20 24 25 29 27 29 30 24 15 11
63 66 61 60 57 57 58 56 48 44 42 36 33 33 27 24 21 16 13 10 6 7 10 11 12 14 15 16 15 15 17 16 16 17 20 20 19 20 23 25 26 27 23 17 11
71 68 62 62 64 64 66 58 48 46 44 41 39 35 31 26 24 19 15 13 12 6 7 12 14 13 14 16 16 15 16 16 15 16 16 16 15 17 23 24 21 23 21 19 13
65 73 67 66 70 69 67 58 50 49 51 45 42 39 35 29 27 23 18 16 15 13 9 9 12 13 14 14 12 12 13 14 16 15 15 15 15 16 17 20 20 18 18 18 13
57 69 71 73 74 72 69 62 55 54 55 50 45 42 37 32 30 26 20 19 16 15 13 11 11 13 13 13 14 13 15 13 14 14 14 14 14 15 15 15 17 18 14 12 13
78 62 74 74 73 74 70 66 60 56 59 53 48 45 42 37 33 28 23 21 19 17 14 14 12 11 13 13 14 16 14 15 13 13 12 12 11 13 13 13 13 13 15 9 10
91 85 67 69 68 73 75 70 65 60 63 56 52 50 43 39 34 30 25 23 21 20 17 16 16 13 12 14 15 17 18 14 14 12 12 12 12 10 12 12 11 10 11 10 10
94 85 89 64 51 78 82 77 67 63 66 58 57 48 44 40 35 30 29 28 25 23 21 18 17 15 12 13 15 16 17 14 12 12 13 12 11 10 10 10 10 10 9 8 8
87 89 90 79 53 64 68 73 69 65 68 60 52 47 44 40 37 37 34 32 28 27 24 20 18 17 14 14 14 14 14 14 13 13 13 11 12 10 8 9 9 9 9 9 9

GFSSW_500_spd_126.txt.gz
Wind_Speed
18 15 14 13 15 15 13 15 13 13 12 12 12 12 9 10 10 10 9 8 11 13 15 16 16 16 16 17 19 21 23 28 31 27 23 25 25 27 24 22 25 29 33 32 41
17 18 14 11 14 13 13 12 13 11 11 12 11 11 10 10 10 9 9 10 12 13 14 15 14 14 15 17 19 21 24 28 30 29 28 30 33 29 28 27 28 29 36 37 39
19 15 13 14 12 13 12 11 11 11 12 12 9 8 9 9 8 9 9 10 12 13 14 13 13 13 14 16 19 21 24 27 31 28 24 25 28 30 30 27 28 33 36 36 37
19 16 15 13 15 14 12 11 11 12 13 10 9 8 7 8 9 9 10 11 12 13 13 13 12 13 15 17 19 22 24 27 29 28 26 21 19 22 24 23 24 26 28 30 31
18 18 15 14 17 13 11 11 11 12 11 9 8 7 9 9 9 9 10 11 11 12 12 11 12 13 14 17 19 21 24 28 27 25 21 20 19 17 16 17 19 22 25 28 29
18 19 18 15 14 12 10 10 11 11 10 9 9 7 8 9 8 10 10 10 12 12 12 11 13 14 15 18 20 22 23 26 28 25 20 19 18 16 15 13 15 19 23 27 30
19 19 21 16 14 12 11 11 12 11 11 12 10 7 8 10 9 9 10 12 13 13 12 12 13 15 15 17 20 22 25 26 22 20 20 20 21 18 17 18 18 18 20 25 30
20 20 20 20 16 13 11 12 12 12 12 12 11 9 9 10 10 10 11 12 13 13 12 12 13 15 16 16 19 22 23 22 25 27 25 20 16 15 16 16 17 18 20 24 32
23 22 21 21 21 15 14 14 13 12 12 10 11 10 10 10 10 10 11 13 14 14 13 12 11 13 16 17 20 22 21 25 28 28 26 19 13 15 19 22 23 24 24 23 27
22 25 24 22 21 18 17 17 15 13 12 10 11 10 10 9 9 11 11 13 14 15 13 11 10 11 12 13 16 21 22 25 26 24 25 23 19 22 24 26 22 21 24 27 28
26 26 28 26 24 21 20 20 16 15 14 12 10 9 8 8 8 9 11 12 14 14 12 11 10 12 11 13 14 18 21 23 24 23 23 22 23 25 25 20 16 19 24 27 28
30 30 29 29 28 26 23 24 21 18 15 13 12 10 9 6 6 7 7 8 10 10 10 11 10 10 11 12 14 17 20 23 24 23 22 22 24 23 22 26 23 20 21 24 24
34 32 32 31 31 29 27 26 24 22 19 17 15 14 12 8 7 6 6 9 9 9 9 8 10 9 10 12 16 17 19 21 21 23 23 22 26 26 26 26 26 28 29 27 23
38 38 36 36 34 33 33 29 28 25 23 21 20 18 15 12 10 7 6 7 8 8 8 7 8 8 7 10 14 17 19 20 22 24 23 24 25 25 25 29 33 31 27 26 27
44 42 42 41 38 38 38 35 34 30 27 25 23 21 19 17 14 11 8 7 7 7 7 7 7 7 6 9 13 16 19 21 22 22 22 23 24 25 24 26 31 27 21 21 9
50 48 46 45 44 43 41 42 39 37 33 25 25 24 22 20 18 14 11 8 6 5 6 6 5 5 5 8 10 14 17 20 21 22 21 20 24 25 25 29 31 29 20 20 15
56 54 51 49 48 48 47 47 48 46 35 31 24 24 24 22 20 17 13 11 7 5 6 5 4 5 5 7 9 11 14 19 20 21 22 22 24 26 27 29 32 27 19 20 15
62 61 57 54 53 52 53 53 57 48 40 34 31 31 25 25 22 19 16 13 9 6 5 6 5 6 7 8 9 10 13 16 20 19 21 23 23 26 26 28 30 25 20 19 18
68 66 67 57 60 57 59 63 60 47 46 40 38 34 30 29 26 23 19 16 12 4 3 4 5 7 7 9 10 10 10 13 16 18 18 21 22 24 25 27 27 27 22 21 20
74 72 68 64 65 64 66 68 62 49 51 47 42 38 35 32 29 25 23 20 16 11 5 4 6 7 8 10 11 10 11 12 14 17 18 20 22 22 22 23 25 25 23 19 18
77 59 71 71 72 72 73 71 65 52 52 52 46 43 39 35 33 30 26 23 21 17 12 6 6 8 8 10 12 12 11 12 13 14 14 16 19 20 18 20 21 22 21 19 17
76 78 60 69 80 80 77 71 63 56 54 55 52 48 43 37 35 33 28 27 23 21 18 13 8 8 9 8 10 13 12 12 12 13 12 13 15 17 18 17 17 18 16 16 14
79 80 71 57 77 74 78 74 63 59 59 58 56 53 47 41 38 35 31 29 27 24 21 18 13 9 8 8 8 11 14 14 14 14 12 11 14 14 15 16 15 15 14 14 11
77 83 89 74 61 73 76 78 68 61 60 61 59 55 52 46 43 39 35 32 29 27 23 20 18 14 9 7 9 11 14 16 14 12 11 9 9 11 12 13 14 13 13 13 12
76 85 85 87 89 57 66 72 75 66 63 63 63 60 55 50 47 43 38 34 31 29 24 22 19 18 14 8 7 11 12 14 14 13 10 9 8 9 9 10 11 12 11 10 10
78 81 88 86 83 89 60 70 73 70 64 66 66 60 56 55 50 40 35 34 34 31 28 24 22 20 19 15 8 8 11 13 13 13 12 11 10 8 7 7 9 9 9 10 10
76 80 84 87 83 93 88 62 68 70 70 65 63 59 58 52 46 38 38 41 40 36 33 29 26 22 22 19 14 10 11 13 15 16 15 13 11 10 9 8 9 10 8 8 10

GFSSW_500_spd_129.txt.gz
Wind_Speed
16 17 19 16 16 17 18 14 14 15 16 14 13 14 15 16 17 17 14 15 13 11 11 13 13 16 17 18 20 20 22 24 25 28 29 34 34 36 34 32 29 30 30 31 33
15 18 19 17 15 14 15 15 13 13 14 12 11 14 17 16 16 14 14 14 13 11 12 13 14 16 16 17 18 19 21 24 26 29 31 31 31 32 36 37 37 34 34 31 35
15 14 15 13 15 14 14 13 13 13 13 12 13 14 14 14 15 12 12 13 12 12 13 14 15 16 17 17 18 19 21 24 27 30 32 32 27 28 28 31 32 33 35 36 39
17 17 15 14 17 18 15 15 14 13 12 13 12 11 13 13 11 11 12 14 13 12 13 14 14 15 15 17 17 19 22 24 28 32 34 32 29 27 26 27 28 32 35 37 36
17 17 17 16 15 17 20 17 14 13 13 12 11 11 11 11 11 12 13 13 12 12 13 13 15 16 16 15 17 19 22 25 27 33 36 31 26 23 22 24 25 25 28 29 30
20 18 17 17 16 16 17 17 15 13 14 12 12 12 11 11 12 12 13 13 12 13 13 15 16 16 15 15 17 19 21 24 27 32 35 29 25 19 22 26 28 27 28 26 29
23 21 18 19 18 17 17 17 14 13 13 13 13 13 13 13 13 12 13 13 14 14 14 15 16 16 15 15 17 19 21 24 26 29 30 25 25 20 22 23 24 27 30 31 32
24 23 21 19 19 19 18 18 15 14 14 14 15 15 15 15 13 14 14 14 15 15 15 15 16 16 16 15 16 18 20 24 25 27 27 24 19 20 21 26 27 26 25 28 32
25 24 23 22 21 21 20 18 17 15 16 16 16 15 16 16 15 15 15 15 16 16 16 15 17 16 16 16 17 19 21 23 24 28 29 25 22 22 25 26 30 32 32 33 35
29 28 26 25 24 24 23 22 18 17 17 18 17 15 16 16 16 15 17 16 16 17 17 16 16 15 16 15 16 20 22 24 24 28 30 27 25 26 31 30 25 28 29 31 33
32 31 30 28 27 26 26 24 22 19 19 20 18 17 17 17 15 15 15 15 16 17 17 16 15 15 14 13 13 18 20 22 22 26 29 29 28 29 29 27 26 27 27 31 34
36 35 35 34 30 29 28 28 26 24 22 22 21 18 17 16 14 13 12 13 13 13 14 16 16 15 13 13 13 16 18 21 22 26 28 28 29 31 32 30 29 30 31 28 29
41 39 38 39 36 34 32 31 30 29 27 26 23 21 20 18 15 13 13 12 13 14 14 14 16 14 13 14 13 14 16 19 22 25 27 27 27 30 32 31 33 34 33 31 25
47 44 41 42 42 38 37 34 35 33 33 29 28 27 23 22 18 15 13 11 10 12 14 14 14 14 13 13 11 14 15 17 19 23 27 28 26 29 30 31 33 31 30 24 24
53 50 48 45 45 44 41 38 39 37 40 33 31 29 27 25 21 19 16 13 11 10 10 11 12 12 12 11 10 11 13 15 18 21 25 27 28 29 29 30 30 27 27 24 20
58 57 53 51 50 50 47 44 43 45 46 35 33 31 31 28 26 24 20 17 13 11 9 8 9 11 11 8 9 11 12 14 15 18 22 25 26 28 31 30 27 26 29 22 18
65 62 60 55 56 56 55 51 52 57 46 41 34 31 34 33 30 27 24 20 16 12 10 8 8 9 9 8 9 11 13 14 13 16 19 22 24 28 28 31 29 25 28 22 16
70 68 67 63 60 62 61 61 64 60 47 46 39 37 34 33 31 29 26 22 19 15 10 8 7 7 8 8 9 11 12 14 14 14 17 20 22 24 26 27 28 27 27 23 21
71 71 71 65 66 65 68 72 68 63 48 47 45 42 40 33 33 31 27 25 22 17 12 9 7 7 8 9 10 11 12 12 14 13 14 17 19 20 23 25 25 24 25 23 21
79 74 73 70 68 71 74 77 71 64 54 53 50 46 42 37 38 33 31 27 25 21 17 13 10 7 7 8 9 10 11 12 12 13 14 15 16 19 21 22 22 21 21 23 22
83 77 74 74 69 71 77 77 76 67 58 59 54 50 49 47 40 36 33 29 27 25 23 19 14 10 7 7 7 8 9 10 11 12 14 15 14 16 18 20 19 18 18 19 19
84 81 75 73 68 77 70 73 75 71 61 61 59 55 52 50 46 42 38 34 31 30 27 25 21 15 9 6 6 6 7 10 12 11 12 14 13 11 13 16 17 16 14 14 16
83 82 75 77 79 70 67 71 75 77 66 63 63 59 54 53 51 48 41 38 36 34 32 28 26 21 13 9 6 7 7 9 13 12 11 14 14 10 10 12 14 14 14 11 10
77 80 77 80 82 80 57 62 74 73 74 67 64 60 59 54 54 50 45 42 39 37 34 33 29 26 20 14 9 8 8 10 11 13 10 11 16 13 11 10 10 11 13 12 11
74 77 77 79 80 83 86 88 52 72 75 70 69 65 63 60 57 54 50 46 42 40 37 35 31 28 25 19 14 10 9 10 10 11 12 11 13 13 11 10 9 9 9 10 10
66 71 74 76 79 86 91 83 90 53 72 73 74 68 64 64 59 53 48 47 44 41 39 37 34 31 28 24 20 15 10 9 10 11 13 14 15 14 11 10 10 9 8 9 9
52 62 61 72 76 79 86 77 80 74 49 73 72 71 67 63 57 53 47 45 45 45 45 42 38 34 31 26 25 19 16 12 10 12 13 15 15 13 13 10 10 10 9 9 9

GFSSW_500_spd_132.txt.gz
Wind_Speed
18 18 19 20 17 16 15 16 14 12 11 11 11 13 13 13 15 17 16 17 17 16 17 15 14 14 15 17 17 18 20 21 22 25 30 33 35 38 37 34 33 34 36 35 37
19 17 18 18 20 15 15 13 13 11 10 9 10 11 13 14 16 18 15 16 16 16 17 14 14 14 15 17 18 19 20 21 23 27 28 32 34 37 34 33 33 35 39 41 39
19 19 17 16 17 15 18 13 11 11 12 10 9 11 14 15 16 15 15 16 15 16 17 13 13 14 16 16 16 17 21 22 24 27 28 31 35 34 31 31 33 34 34 36 39
22 21 20 19 15 17 15 16 13 12 12 11 11 12 14 14 13 14 14 15 14 16 15 13 14 16 16 16 17 19 21 23 25 27 29 32 35 37 33 29 30 32 30 32 35
21 23 21 21 20 17 16 16 17 14 12 12 13 12 13 14 13 15 14 15 15 15 14 14 15 17 17 16 18 19 21 23 26 28 31 34 37 34 32 27 29 29 29 29 31
22 22 23 22 23 19 18 19 15 15 14 13 12 12 13 14 16 16 15 14 15 14 15 15 17 18 18 18 18 19 21 23 25 28 32 35 38 37 34 30 27 30 29 32 34
24 22 23 23 24 23 19 19 18 14 15 14 13 13 15 15 17 16 16 15 14 16 16 17 18 18 17 18 17 18 20 22 23 28 31 35 37 36 34 32 32 30 30 31 31
27 26 23 24 25 26 22 19 19 18 15 14 14 15 17 18 19 18 17 16 15 17 18 19 19 19 19 17 17 17 19 22 25 28 30 33 35 32 30 27 31 33 32 32 34
30 29 27 26 27 27 26 23 20 21 16 15 16 17 16 19 19 20 19 17 17 19 20 20 20 20 19 17 17 17 18 20 23 26 30 33 33 30 29 31 33 30 27 29 30
34 33 31 30 29 29 28 28 24 22 21 17 17 19 19 19 19 21 21 20 18 19 19 20 20 20 18 17 17 18 17 20 23 27 29 32 33 31 32 34 34 31 32 32 35
38 37 36 34 32 32 31 30 31 27 24 22 17 20 21 20 21 21 22 21 19 18 18 18 19 18 17 17 17 17 17 20 22 25 27 30 33 32 33 36 35 34 35 36 31
43 41 39 39 36 36 34 35 34 31 28 26 22 21 23 22 22 20 20 19 18 16 15 16 17 17 17 18 17 16 17 19 21 22 24 27 31 32 33 37 36 40 35 34 33
43 46 45 42 42 39 39 38 37 36 36 31 26 24 25 24 23 20 20 18 18 16 16 17 17 16 16 17 16 16 17 18 19 21 23 24 26 28 30 36 38 35 36 36 30
45 47 49 48 46 45 43 43 41 42 43 33 34 28 27 26 26 24 21 19 17 15 15 14 15 15 15 16 15 16 17 17 18 20 21 23 23 26 28 35 37 33 36 32 30
50 50 51 53 52 49 49 46 46 45 49 42 38 33 31 28 27 26 25 21 19 15 13 13 13 14 14 16 15 16 16 16 18 19 19 21 24 26 27 32 33 31 33 28 29
60 56 55 57 58 56 52 53 52 51 56 47 43 37 34 32 32 32 27 25 22 19 14 13 12 12 13 13 14 16 15 15 17 18 18 19 22 24 26 30 32 30 30 30 23
69 64 63 61 61 61 58 58 60 61 56 50 45 40 37 35 36 36 33 29 25 20 18 14 13 14 12 11 14 17 16 16 15 16 18 18 19 22 24 27 29 30 28 26 25
77 74 67 66 65 64 64 65 69 65 61 57 44 47 40 38 38 39 38 33 28 24 21 16 14 14 12 11 12 14 15 16 15 15 16 16 17 18 20 24 26 29 27 26 22
78 79 75 68 68 67 71 75 73 70 66 58 51 49 48 40 37 39 40 36 33 27 24 19 14 13 12 12 13 14 14 15 14 14 15 14 15 16 18 20 23 26 28 26 25
79 79 77 69 68 59 75 80 74 70 69 62 58 53 52 43 43 37 37 36 33 29 26 22 18 14 12 10 11 13 13 12 11 12 14 14 14 14 14 16 20 22 25 26 24
81 83 79 73 70 77 77 79 80 70 69 67 61 58 55 53 42 42 38 32 34 31 29 25 23 19 14 12 12 10 8 8 9 11 14 13 13 13 12 13 15 18 21 22 22
81 82 81 78 74 77 82 74 77 74 62 69 64 61 60 55 52 45 43 41 39 37 32 29 28 24 20 15 12 10 9 9 9 10 12 13 11 13 12 11 12 14 16 17 16
73 74 77 82 79 77 79 78 75 75 69 65 69 64 62 58 57 54 48 41 37 36 36 33 31 29 27 21 14 11 10 9 9 10 11 13 11 11 12 11 10 11 12 13 13
66 68 71 80 80 73 76 76 81 75 69 74 64 71 65 62 60 57 54 50 46 43 41 38 35 32 30 28 22 15 11 7 8 9 10 12 13 11 12 11 9 8 9 9 10
54 59 58 68 72 72 67 77 79 77 74 65 71 68 75 65 64 62 57 54 49 47 45 43 39 35 33 31 28 22 15 9 8 7 9 11 13 13 11 10 9 6 6 6 7
46 48 48 58 60 51 64 76 77 74 73 74 76 65 71 72 65 63 58 55 50 47 46 44 41 39 38 35 32 30 21 13 10 8 8 11 12 13 12 11 10 7 5 4 4
39 43 43 50 54 64 66 72 74 82 79 62 60 71 74 75 68 68 61 55 50 46 41 45 44 43 42 39 36 33 25 20 14 12 10 11 11 12 12 13 11 9 7 6 5